I-5 : South of SR-46 Atmospheric Data: 09/21/2021 Summary  Detailed Graphs  Station List

  Temperature     Wind Precipitation Visibility
Timestamp Wet
Bulb
Dew-
point
24-hr
Max
24-hr
Min
Relative
Humidity
Atmospheric
Pressure
Avg
Speed
Avg
Dir
Spot
Speed
Spot
Dir
Max
Speed
Max
Dir
  Rate Situation Start End 1 hr 3 hr 6 hr 12 hr 24 hr   Situation
Date Time °F °F °F °F % in Hg mph ° mph ° mph ° Y/N in/hr text Date Time Date Time in in in in in mi text
09/21/2021 12:00 AM 54.32 8.78 88.70 54.14 10.0 x 3.13 S 2.46 S 4.70 S x x Other 11/16/2012 03:01 PM   x x x x x 0.02 Unknown
09/21/2021 12:01 AM 54.32 8.78 88.70 54.14 10.0 x 3.58 S 3.36 S 5.37 S x x Other 11/16/2012 03:01 PM   x x x x x 0.02 Unknown
09/21/2021 12:02 AM 54.32 8.60 88.70 54.14 10.0 x 3.13 S 1.79 S 5.37 S x x Other 11/16/2012 03:01 PM   x x x x x 0.02 Unknown
09/21/2021 12:03 AM 54.32 8.60 88.70 54.14 10.0 x 2.01 SW 1.57 S 5.37 S x x Other 11/16/2012 03:01 PM   x x x x x 0.02 Unknown
09/21/2021 12:04 AM 54.32 8.60 88.70 54.14 10.0 x 1.79 S 1.57 SW 5.37 S x x Other 11/16/2012 03:01 PM   x x x x x 0.02 Unknown
09/21/2021 12:05 AM 54.32 8.60 88.70 54.14 10.0 x 2.01 S 2.01 S 5.37 S x x Other 11/16/2012 03:01 PM   x x x x x 0.02 Unknown
09/21/2021 12:06 AM 54.32 8.60 88.70 54.14 10.0 x 1.79 S 1.79 SW 5.37 S x x Other 11/16/2012 03:01 PM   x x x x x 0.02 Unknown
09/21/2021 12:07 AM 54.32 8.60 88.70 54.14 10.0 x 1.57 SW 0.22 SW 5.37 S x x Other 11/16/2012 03:01 PM   x x x x x 0.02 Unknown
09/21/2021 12:08 AM 54.32 8.60 88.70 54.14 10.0 x 0.89 SW 0.45 S 5.37 S x x Other 11/16/2012 03:01 PM   x x x x x 0.02 Unknown
09/21/2021 12:09 AM 54.14 8.42 88.70 54.14 10.0 x 0.67 SW 0.89 S 5.37 S x x Other 11/16/2012 03:01 PM   x x x x x 0.02 Unknown
09/21/2021 12:10 AM 54.14 8.42 88.70 54.14 10.0 x 0.89 SW 2.01 SW 5.37 S x x Other 11/16/2012 03:01 PM   x x x x x 0.02 Unknown
09/21/2021 12:11 AM 54.14 8.42 88.70 54.14 10.0 x 1.34 SW 1.79 SW 4.03 S x x Other 11/16/2012 03:01 PM   x x x x x 0.02 Unknown
09/21/2021 12:12 AM 54.14 8.42 88.70 54.14 10.0 x 1.34 SW 1.12 W 4.03 S x x Other 11/16/2012 03:01 PM   x x x x x 0.02 Unknown
09/21/2021 12:13 AM 54.14 8.42 88.70 54.14 10.0 x 1.34 SW 1.57 SW 2.91 S x x Other 11/16/2012 03:01 PM   x x x x x 0.02 Unknown
09/21/2021 12:14 AM 53.96 8.24 88.70 54.14 10.0 x 1.12 SW 0.45 W 2.68 S x x Other 11/16/2012 03:01 PM   x x x x x 0.02 Unknown
09/21/2021 12:15 AM 53.78 8.06 88.70 54.14 10.0 x 0.89 SW 0.89 S 2.46 S x x Other 11/16/2012 03:01 PM   x x x x x 0.02 Unknown
09/21/2021 12:16 AM 53.78 8.06 88.70 54.14 10.0 x 0.89 SW 0.45 SW 2.01 NW x x Other 11/16/2012 03:01 PM   x x x x x 0.02 Unknown
09/21/2021 12:17 AM 53.78 8.06 88.70 54.14 10.0 x 1.34 SW 1.12 SW 2.91 S x x Other 11/16/2012 03:01 PM   x x x x x 0.02 Unknown
09/21/2021 12:18 AM 53.78 8.06 88.70 54.14 10.0 x 1.34 SW 1.34 SW 2.91 S x x Other 11/16/2012 03:01 PM   x x x x x 0.02 Unknown
09/21/2021 12:19 AM 53.78 8.06 88.70 54.14 10.0 x 1.12 SW 1.12 SW 2.91 S x x Other 11/16/2012 03:01 PM   x x x x x 0.02 Unknown
09/21/2021 12:20 AM 53.78 8.06 88.70 54.14 10.0 x 1.12 SW 0.22 SW 2.91 S x x Other 11/16/2012 03:01 PM   x x x x x 0.02 Unknown
09/21/2021 12:21 AM 53.60 8.06 88.70 54.14 10.0 x 1.12 S 1.34 SW 2.91 S x x Other 11/16/2012 03:01 PM   x x x x x 0.02 Unknown
09/21/2021 12:22 AM 53.60 7.88 88.70 54.14 10.0 x 1.12 S 1.79 S 2.91 S x x Other 11/16/2012 03:01 PM   x x x x x 0.02 Unknown
09/21/2021 12:23 AM 53.60 8.06 88.70 54.14 10.0 x 1.57 SW 1.12 SW 2.91 S x x Other 11/16/2012 03:01 PM   x x x x x 0.02 Unknown
09/21/2021 12:24 AM 53.42 7.88 88.70 54.14 10.0 x 1.12 SW 0.45 SW 2.91 S x x Other 11/16/2012 03:01 PM   x x x x x 0.02 Unknown
09/21/2021 12:25 AM 53.24 8.78 88.70 54.14 10.0 x 0.89 SW 0.45 S 2.91 S x x Other 11/16/2012 03:01 PM   x x x x x 0.02 Unknown
09/21/2021 12:26 AM 53.24 8.60 88.70 54.14 10.0 x 0.89 SW 0.45 SW 2.46 S x x Other 11/16/2012 03:01 PM   x x x x x 0.02 Unknown
09/21/2021 12:27 AM 53.24 8.60 88.70 54.14 10.0 x 0.89 SW 0.45 SW 2.46 S x x Other 11/16/2012 03:01 PM   x x x x x 0.02 Unknown
09/21/2021 12:28 AM 53.06 9.32 88.70 54.14 10.0 x 0.89 SW 1.79 S 2.24 SW x x Other 11/16/2012 03:01 PM   x x x x x 0.02 Unknown
09/21/2021 12:29 AM 53.06 9.32 88.70 54.14 10.0 x 1.34 S 1.79 S 2.46 SW x x Other 11/16/2012 03:01 PM   x x x x x 0.02 Unknown
09/21/2021 12:30 AM 53.06 9.32 88.70 54.14 10.0 x 1.57 S 1.12 SW 2.46 SW x x Other 11/16/2012 03:01 PM   x x x x x 0.02 Unknown
09/21/2021 12:31 AM 53.06 9.32 88.70 54.14 10.0 x 1.34 S 1.34 S 2.46 SW x x Other 11/16/2012 03:01 PM   x x x x x 0.02 Unknown
09/21/2021 12:32 AM 53.06 9.50 88.70 54.14 10.0 x 1.57 S 1.79 S 2.68 S x x Other 11/16/2012 03:01 PM   x x x x x 0.02 Unknown
09/21/2021 12:33 AM 53.06 9.32 88.70 54.14 10.0 x 1.79 SW 1.79 SW 2.68 S x x Other 11/16/2012 03:01 PM   x x x x x 0.02 Unknown
09/21/2021 12:34 AM 53.06 9.32 88.70 54.14 10.0 x 1.79 SW 1.57 SW 2.68 S x x Other 11/16/2012 03:01 PM   x x x x x 0.02 Unknown
09/21/2021 12:35 AM 53.06 9.32 88.70 54.14 10.0 x 1.79 SW 2.01 S 2.68 S x x Other 11/16/2012 03:01 PM   x x x x x 0.02 Unknown
09/21/2021 12:36 AM 52.88 9.14 88.70 54.14 10.0 x 1.79 SW 1.79 SW 2.68 S x x Other 11/16/2012 03:01 PM   x x x x x 0.02 Unknown
09/21/2021 12:37 AM 52.88 10.04 88.70 54.14 11.0 x 2.46 S 2.68 SW 4.92 S x x Other 11/16/2012 03:01 PM   x x x x x 0.02 Unknown
09/21/2021 12:38 AM 52.70 9.86 88.70 54.14 11.0 x 2.68 S 1.79 S 4.92 S x x Other 11/16/2012 03:01 PM   x x x x x 0.02 Unknown
09/21/2021 12:39 AM 52.70 9.86 88.70 54.14 11.0 x 2.24 S 2.46 S 4.92 S x x Other 11/16/2012 03:01 PM   x x x x x 0.02 Unknown
09/21/2021 12:40 AM 52.70 9.86 88.70 54.14 11.0 x 2.24 S 2.01 S 4.92 S x x Other 11/16/2012 03:01 PM   x x x x x 0.02 Unknown
09/21/2021 12:41 AM 52.70 9.68 88.70 54.14 11.0 x 2.24 S 1.57 SE 4.92 S x x Other 11/16/2012 03:01 PM   x x x x x 0.02 Unknown
09/21/2021 12:42 AM 52.34 9.50 88.70 54.14 11.0 x 1.79 SE 1.57 S 4.92 S x x Other 11/16/2012 03:01 PM   x x x x x 0.02 Unknown
09/21/2021 12:43 AM 52.16 9.32 88.70 54.14 11.0 x 1.57 SE 1.57 SE 4.92 S x x Other 11/16/2012 03:01 PM   x x x x x 0.02 Unknown
09/21/2021 12:44 AM 51.98 9.68 88.70 54.14 11.0 x 1.57 SE 1.57 SE 4.92 S x x Other 11/16/2012 03:01 PM   x x x x x 0.02 Unknown
09/21/2021 12:45 AM 51.62 9.50 88.70 54.14 11.0 x 1.57 SE 1.79 SE 4.92 S x x Other 11/16/2012 03:01 PM   x x x x x 0.02 Unknown
09/21/2021 12:46 AM 51.44 9.86 88.70 54.14 11.0 x 1.57 SE 1.79 E 3.36 S x x Other 11/16/2012 03:01 PM   x x x x x 0.02 Unknown
09/21/2021 12:47 AM 51.26 10.58 88.70 54.14 12.0 x 1.57 SE 1.34 SE 3.36 S x x Other 11/16/2012 03:01 PM   x x x x x 0.02 Unknown
09/21/2021 12:48 AM 51.08 10.94 88.70 54.14 12.0 x 1.57 SE 1.34 SE 3.36 S x x Other 11/16/2012 03:01 PM   x x x x x 0.02 Unknown
09/21/2021 12:49 AM 50.72 10.76 88.70 54.14 12.0 x 1.34 SE 1.34 SE 3.36 S x x Other 11/16/2012 03:01 PM   x x x x x 0.02 Unknown
09/21/2021 12:50 AM 50.54 11.30 88.70 54.14 13.0 x 1.34 SE 1.57 S 2.01 E x x Other 11/16/2012 03:01 PM   x x x x x 0.02 Unknown
09/21/2021 12:51 AM 50.54 11.12 88.70 54.14 13.0 x 1.57 S 1.79 S 2.01 E x x Other 11/16/2012 03:01 PM   x x x x x 0.02 Unknown
09/21/2021 12:52 AM 50.36 11.66 88.70 54.14 13.0 x 1.79 S 2.46 S 2.46 S x x Other 11/16/2012 03:01 PM   x x x x x 0.02 Unknown
09/21/2021 12:53 AM 50.36 11.66 88.70 54.14 13.0 x 2.24 S 3.13 S 3.36 S x x Other 11/16/2012 03:01 PM   x x x x x 0.02 Unknown
09/21/2021 12:54 AM 50.36 11.66 88.70 54.14 13.0 x 3.13 S 5.59 S 5.59 S x x Other 11/16/2012 03:01 PM   x x x x x 0.02 Unknown
09/21/2021 12:55 AM 50.54 11.84 88.70 54.14 13.0 x 3.80 S 2.01 SW 6.49 S x x Other 11/16/2012 03:01 PM   x x x x x 0.02 Unknown
09/21/2021 12:56 AM 50.54 12.02 88.70 54.14 13.0 x 2.91 SW 0.45 SW 6.49 S x x Other 11/16/2012 03:01 PM   x x x x x 0.02 Unknown
09/21/2021 12:57 AM 50.72 11.48 88.70 54.14 13.0 x 1.57 NW 1.34 N 6.49 S x x Other 11/16/2012 03:01 PM   x x x x x 0.02 Unknown
09/21/2021 12:58 AM 50.90 11.66 88.70 54.14 13.0 x 0.89 NW 0.89 N 6.49 S x x Other 11/16/2012 03:01 PM   x x x x x 0.02 Unknown
09/21/2021 12:59 AM 51.08 11.84 88.70 54.14 13.0 x 0.45 NW 0.67 NE 6.49 S x x Other 11/16/2012 03:01 PM   x x x x x 0.02 Unknown
09/21/2021 01:00 AM 51.08 12.02 88.70 54.14 13.0 x 0.22 NE 0.00 NE 6.49 S x x Other 11/16/2012 03:01 PM   x x x x x 0.02 Unknown
09/21/2021 01:01 AM 51.08 11.84 88.70 54.14 13.0 x 0.22 NE 0.22 S 6.49 S x x Other 11/16/2012 03:01 PM   x x x x x 0.02 Unknown
09/21/2021 01:02 AM 51.26 12.02 88.70 54.14 13.0 x 0.45 NE 1.79 S 6.49 S x x Other 11/16/2012 03:01 PM   x x x x x 0.02 Unknown
09/21/2021 01:03 AM 51.26 11.48 88.70 54.14 12.0 x 1.57 S 2.24 SW 6.49 S x x Other 11/16/2012 03:01 PM   x x x x x 0.02 Unknown
09/21/2021 01:04 AM 51.26 11.48 88.70 54.14 12.0 x 2.68 S 3.36 SE 4.47 S x x Other 11/16/2012 03:01 PM   x x x x x 0.02 Unknown
09/21/2021 01:05 AM 51.26 11.48 88.70 54.14 12.0 x 2.24 S 0.67 SW 3.80 SW x x Other 11/16/2012 03:01 PM   x x x x x 0.02 Unknown
09/21/2021 01:06 AM 51.26 11.48 88.70 54.14 12.0 x 1.57 S 2.91 S 3.80 SW x x Other 11/16/2012 03:01 PM   x x x x x 0.02 Unknown
09/21/2021 01:07 AM 51.26 11.48 88.70 54.14 12.0 x 2.24 S 3.13 S 3.80 SW x x Other 11/16/2012 03:01 PM   x x x x x 0.02 Unknown
09/21/2021 01:08 AM 51.26 11.12 88.70 54.14 12.0 x 2.01 S 0.45 N 3.80 SW x x Other 11/16/2012 03:01 PM   x x x x x 0.02 Unknown
09/21/2021 01:09 AM 51.26 11.12 88.70 54.14 12.0 x 1.12 W 0.00 W 3.80 SW x x Other 11/16/2012 03:01 PM   x x x x x 0.02 Unknown
09/21/2021 01:10 AM 51.26 11.30 88.70 54.14 12.0 x 0.89 NW 0.45 NW 3.80 SW x x Other 11/16/2012 03:01 PM   x x x x x 0.02 Unknown
09/21/2021 01:11 AM 51.26 11.30 88.70 54.14 12.0 x 0.89 W 0.89 W 3.80 SW x x Other 11/16/2012 03:01 PM   x x x x x 0.02 Unknown
09/21/2021 01:12 AM 51.08 11.12 88.70 54.14 12.0 x 0.67 W 0.89 SW 3.80 SW x x Other 11/16/2012 03:01 PM   x x x x x 0.02 Unknown
09/21/2021 01:13 AM 51.08 11.12 88.70 54.14 12.0 x 0.89 SW 2.01 SW 3.80 SE x x Other 11/16/2012 03:01 PM   x x x x x 0.02 Unknown
09/21/2021 01:14 AM 51.26 11.30 88.70 54.14 12.0 x 1.12 SW 2.01 S 3.80 S x x Other 11/16/2012 03:01 PM   x x x x x 0.02 Unknown
09/21/2021 01:15 AM 51.26 11.30 88.70 54.14 12.0 x 1.34 SW 1.57 SW 3.80 S x x Other 11/16/2012 03:01 PM   x x x x x 0.02 Unknown
09/21/2021 01:16 AM 51.08 11.12 88.70 54.14 12.0 x 1.34 SW 2.24 SW 3.80 S x x Other 11/16/2012 03:01 PM   x x x x x 0.02 Unknown
09/21/2021 01:17 AM 51.08 11.12 88.70 54.14 12.0 x 2.01 SW 2.68 SW 3.36 SW x x Other 11/16/2012 03:01 PM   x x x x x 0.02 Unknown
09/21/2021 01:18 AM 50.90 11.12 88.70 54.14 12.0 x 2.68 SW 2.24 SW 3.36 SW x x Other 11/16/2012 03:01 PM   x x x x x 0.02 Unknown
09/21/2021 01:19 AM 50.90 10.94 88.70 54.14 12.0 x 2.68 SW 2.24 W 3.36 SW x x Other 11/16/2012 03:01 PM   x x x x x 0.02 Unknown
09/21/2021 01:20 AM 50.72 10.76 88.70 54.14 12.0 x 2.68 W 2.24 W 3.36 SW x x Other 11/16/2012 03:01 PM   x x x x x 0.02 Unknown
09/21/2021 01:21 AM 50.54 11.30 88.70 54.14 13.0 x 2.68 W 3.13 W 3.36 SW x x Other 11/16/2012 03:01 PM   x x x x x 0.02 Unknown
09/21/2021 01:22 AM 50.36 11.12 88.70 54.14 13.0 x 2.91 W 1.12 SW 4.25 W x x Other 11/16/2012 03:01 PM   x x x x x 0.02 Unknown
09/21/2021 01:23 AM 50.18 11.48 88.70 54.14 13.0 x 2.91 W 3.13 NW 4.25 W x x Other 11/16/2012 03:01 PM   x x x x x 0.02 Unknown
09/21/2021 01:24 AM 50.18 11.48 88.70 54.14 13.0 x 3.13 W 2.68 NW 4.25 W x x Other 11/16/2012 03:01 PM   x x x x x 0.02 Unknown
09/21/2021 01:25 AM 49.82 11.12 88.70 54.14 13.0 x 3.58 W 3.80 W 4.25 W x x Other 11/16/2012 03:01 PM   x x x x x 0.02 Unknown
09/21/2021 01:26 AM 49.82 11.12 88.70 54.14 13.0 x 3.80 W 4.25 W 4.47 NW x x Other 11/16/2012 03:01 PM   x x x x x 0.02 Unknown
09/21/2021 01:27 AM 49.46 11.48 88.70 54.14 13.0 x 4.03 NW 3.36 NW 4.70 NW x x Other 11/16/2012 03:01 PM   x x x x x 0.02 Unknown
09/21/2021 01:28 AM 49.46 11.30 88.70 54.14 13.0 x 4.03 NW 3.58 NW 4.70 NW x x Other 11/16/2012 03:01 PM   x x x x x 0.02 Unknown
09/21/2021 01:29 AM 49.46 11.30 88.70 54.14 13.0 x 4.03 NW 3.80 NW 4.70 NW x x Other 11/16/2012 03:01 PM   x x x x x 0.02 Unknown
09/21/2021 01:30 AM 49.28 11.12 88.70 54.14 13.0 x 3.80 NW 3.80 NW 4.92 NW x x Other 11/16/2012 03:01 PM   x x x x x 0.02 Unknown
09/21/2021 01:31 AM 49.28 11.12 88.70 54.14 13.0 x 3.80 NW 2.68 SW 4.92 NW x x Other 11/16/2012 03:01 PM   x x x x x 0.02 Unknown
09/21/2021 01:32 AM 49.28 11.12 88.70 54.14 13.0 x 3.58 W 3.36 W 4.92 NW x x Other 11/16/2012 03:01 PM   x x x x x 0.02 Unknown
09/21/2021 01:33 AM 49.28 11.12 88.70 54.14 13.0 x 3.58 W 3.80 W 4.92 NW x x Other 11/16/2012 03:01 PM   x x x x x 0.02 Unknown
09/21/2021 01:34 AM 49.28 11.12 88.70 54.14 13.0 x 4.03 W 4.25 W 4.92 NW x x Other 11/16/2012 03:01 PM   x x x x x 0.02 Unknown
09/21/2021 01:35 AM 49.28 10.40 88.70 54.14 13.0 x 4.03 W 4.25 W 4.92 NW x x Other 11/16/2012 03:01 PM   x x x x x 0.02 Unknown
09/21/2021 01:36 AM 49.28 10.40 88.70 54.14 13.0 x 4.03 W 3.80 W 5.14 W x x Other 11/16/2012 03:01 PM   x x x x x 0.02 Unknown
09/21/2021 01:37 AM 49.28 10.40 88.70 54.14 13.0 x 4.03 W 4.47 W 5.14 W x x Other 11/16/2012 03:01 PM   x x x x x 0.02 Unknown
09/21/2021 01:38 AM 49.28 10.58 88.70 54.14 13.0 x 4.47 W 5.59 W 5.59 W x x Other 11/16/2012 03:01 PM   x x x x x 0.02 Unknown
09/21/2021 01:39 AM 49.46 10.58 88.70 54.14 13.0 x 5.14 W 4.92 W 5.59 W x x Other 11/16/2012 03:01 PM   x x x x x 0.02 Unknown
09/21/2021 01:40 AM 49.46 10.58 88.70 54.14 13.0 x 5.14 W 5.59 W 5.59 W x x Other 11/16/2012 03:01 PM   x x x x x 0.02 Unknown
09/21/2021 01:41 AM 49.46 10.76 88.70 54.14 13.0 x 5.14 W 5.37 W 5.82 W x x Other 11/16/2012 03:01 PM   x x x x x 0.02 Unknown
09/21/2021 01:42 AM 49.46 10.58 88.70 54.14 13.0 x 5.14 W 5.59 W 5.82 W x x Other 11/16/2012 03:01 PM   x x x x x 0.02 Unknown
09/21/2021 01:43 AM 49.64 10.76 88.70 54.14 13.0 x 5.37 W 5.14 W 6.04 W x x Other 11/16/2012 03:01 PM   x x x x x 0.02 Unknown
09/21/2021 01:44 AM 49.64 10.76 88.70 54.14 13.0 x 5.14 W 3.58 W 6.04 W x x Other 11/16/2012 03:01 PM   x x x x x 0.02 Unknown
09/21/2021 01:45 AM 49.64 10.94 88.70 54.14 13.0 x 4.47 W 4.70 W 6.04 W x x Other 11/16/2012 03:01 PM   x x x x x 0.02 Unknown
09/21/2021 01:46 AM 49.64 10.94 88.70 54.14 13.0 x 4.25 W 4.47 W 6.04 W x x Other 11/16/2012 03:01 PM   x x x x x 0.02 Unknown
09/21/2021 01:47 AM 49.64 10.94 88.70 54.14 13.0 x 4.03 W 3.13 W 6.04 W x x Other 11/16/2012 03:01 PM   x x x x x 0.02 Unknown
09/21/2021 01:48 AM 49.64 10.94 88.70 54.14 13.0 x 3.36 W 2.91 W 6.04 W x x Other 11/16/2012 03:01 PM   x x x x x 0.02 Unknown
09/21/2021 01:49 AM 49.82 10.94 88.70 54.14 13.0 x 3.36 W 3.36 W 6.04 W x x Other 11/16/2012 03:01 PM   x x x x x 0.02 Unknown
09/21/2021 01:50 AM 49.82 10.94 88.70 54.14 13.0 x 2.91 W 2.46 W 6.04 W x x Other 11/16/2012 03:01 PM   x x x x x 0.02 Unknown
09/21/2021 01:51 AM 49.82 10.94 88.70 54.14 13.0 x 2.68 W 1.79 S 6.04 W x x Other 11/16/2012 03:01 PM   x x x x x 0.02 Unknown
09/21/2021 01:52 AM 49.82 11.12 88.70 54.14 13.0 x 2.01 W 0.00 SW 5.82 W x x Other 11/16/2012 03:01 PM   x x x x x 0.02 Unknown
09/21/2021 01:53 AM 49.82 11.12 88.70 54.14 13.0 x 1.12 W 1.34 S 5.14 W x x Other 11/16/2012 03:01 PM   x x x x x 0.02 Unknown
09/21/2021 01:54 AM 50.00 11.12 88.70 54.14 13.0 x 0.89 SW 2.24 SW 4.92 W x x Other 11/16/2012 03:01 PM   x x x x x 0.02 Unknown
09/21/2021 01:55 AM 50.00 11.30 88.70 54.14 13.0 x 1.57 S 2.24 SW 4.92 W x x Other 11/16/2012 03:01 PM   x x x x x 0.02 Unknown
09/21/2021 01:56 AM 50.18 10.76 88.70 54.14 13.0 x 1.79 SW 1.79 S 4.25 W x x Other 11/16/2012 03:01 PM   x x x x x 0.02 Unknown
09/21/2021 01:57 AM 50.36 10.94 88.70 54.14 13.0 x 1.12 SW 0.45 SW 4.25 W x x Other 11/16/2012 03:01 PM   x x x x x 0.02 Unknown
09/21/2021 01:58 AM 50.36 11.12 88.70 54.14 13.0 x 0.45 SW 1.12 SW 3.58 W x x Other 11/16/2012 03:01 PM   x x x x x 0.02 Unknown
09/21/2021 01:59 AM 50.36 10.94 88.70 54.14 13.0 x 0.45 SW 1.79 SE 3.58 SW x x Other 11/16/2012 03:01 PM   x x x x x 0.02 Unknown
09/21/2021 02:00 AM 50.54 10.58 88.70 54.14 12.0 x 0.89 SW 2.24 SW 3.58 SW x x Other 11/16/2012 03:01 PM   x x x x x 0.02 Unknown
09/21/2021 02:01 AM 50.72 10.76 88.70 54.14 12.0 x 1.79 S 2.01 S 3.13 S x x Other 11/16/2012 03:01 PM   x x x x x 0.02 Unknown
09/21/2021 02:02 AM 50.72 10.58 88.70 54.14 12.0 x 1.79 S 0.22 SW 3.13 S x x Other 11/16/2012 03:01 PM   x x x x x 0.02 Unknown
09/21/2021 02:03 AM 50.72 10.76 88.70 54.14 12.0 x 1.34 S 1.57 S 3.13 S x x Other 11/16/2012 03:01 PM   x x x x x 0.02 Unknown
09/21/2021 02:04 AM 50.72 10.04 88.70 54.14 12.0 x 1.79 S 4.70 S 6.04 S x x Other 11/16/2012 03:01 PM   x x x x x 0.02 Unknown
09/21/2021 02:05 AM 50.72 10.04 88.70 54.14 12.0 x 3.13 S 2.01 S 6.04 S x x Other 11/16/2012 03:01 PM   x x x x x 0.02 Unknown
09/21/2021 02:06 AM 50.72 9.86 88.70 54.14 12.0 x 3.36 S 3.13 S 6.04 S x x Other 11/16/2012 03:01 PM   x x x x x 0.02 Unknown
09/21/2021 02:07 AM 50.72 9.86 88.70 54.14 12.0 x 3.36 S 4.03 S 6.04 S x x Other 11/16/2012 03:01 PM   x x x x x 0.02 Unknown
09/21/2021 02:08 AM 50.54 9.68 88.70 54.14 12.0 x 3.36 S 3.36 S 6.04 S x x Other 11/16/2012 03:01 PM   x x x x x 0.02 Unknown
09/21/2021 02:09 AM 50.54 9.68 88.70 54.14 12.0 x 3.13 S 4.70 SE 6.04 S x x Other 11/16/2012 03:01 PM   x x x x x 0.02 Unknown
09/21/2021 02:10 AM 50.54 9.68 88.70 54.14 12.0 x 3.36 S 5.37 SE 6.04 S x x Other 11/16/2012 03:01 PM   x x x x x 0.02 Unknown
09/21/2021 02:11 AM 50.54 9.68 88.70 54.14 12.0 x 3.58 S 2.68 S 6.04 S x x Other 11/16/2012 03:01 PM   x x x x x 0.02 Unknown
09/21/2021 02:12 AM 50.54 9.68 88.70 54.14 12.0 x 3.58 S 2.91 S 6.04 S x x Other 11/16/2012 03:01 PM   x x x x x 0.02 Unknown
09/21/2021 02:13 AM 50.36 9.50 88.70 54.14 12.0 x 3.58 S 3.36 S 6.04 S x x Other 11/16/2012 03:01 PM   x x x x x 0.02 Unknown
09/21/2021 02:14 AM 50.36 9.50 88.70 54.14 12.0 x 3.58 S 4.03 S 5.37 S x x Other 11/16/2012 03:01 PM   x x x x x 0.02 Unknown
09/21/2021 02:15 AM 50.00 9.32 88.70 54.14 12.0 x 3.80 S 3.58 S 5.37 S x x Other 11/16/2012 03:01 PM   x x x x x 0.02 Unknown
09/21/2021 02:16 AM 50.00 9.68 88.70 54.14 12.0 x 3.36 S 4.25 S 5.37 S x x Other 11/16/2012 03:01 PM   x x x x x 0.02 Unknown
09/21/2021 02:17 AM 49.82 9.68 88.70 54.14 12.0 x 2.91 S 1.12 SE 5.37 S x x Other 11/16/2012 03:01 PM   x x x x x 0.02 Unknown
09/21/2021 02:18 AM 49.64 9.50 88.70 54.14 12.0 x 3.36 S 3.80 S 6.49 S x x Other 11/16/2012 03:01 PM   x x x x x 0.02 Unknown
09/21/2021 02:19 AM 49.64 9.50 88.70 54.14 12.0 x 4.03 S 4.70 S 6.49 S x x Other 11/16/2012 03:01 PM   x x x x x 0.02 Unknown
09/21/2021 02:20 AM 49.46 10.04 88.70 54.14 13.0 x 4.47 S 5.37 S 6.49 S x x Other 11/16/2012 03:01 PM   x x x x x 0.02 Unknown
09/21/2021 02:21 AM 49.28 9.86 88.70 54.14 13.0 x 4.70 S 3.80 S 6.49 S x x Other 11/16/2012 03:01 PM   x x x x x 0.02 Unknown
09/21/2021 02:22 AM 49.28 10.40 88.70 54.14 13.0 x 4.47 S 3.36 S 6.49 S x x Other 11/16/2012 03:01 PM   x x x x x 0.02 Unknown
09/21/2021 02:23 AM 49.10 10.40 88.70 54.14 13.0 x 3.80 S 3.13 S 6.49 S x x Other 11/16/2012 03:01 PM   x x x x x 0.02 Unknown
09/21/2021 02:24 AM 49.10 10.22 88.70 54.14 13.0 x 3.36 S 3.58 S 6.49 S x x Other 11/16/2012 03:01 PM   x x x x x 0.02 Unknown
09/21/2021 02:25 AM 48.92 10.04 88.70 54.14 13.0 x 3.13 S 3.13 S 6.49 S x x Other 11/16/2012 03:01 PM   x x x x x 0.02 Unknown
09/21/2021 02:26 AM 48.92 10.04 88.70 54.14 13.0 x 2.68 S 2.01 W 6.49 S x x Other 11/16/2012 03:01 PM   x x x x x 0.02 Unknown
09/21/2021 02:27 AM 48.74 10.04 88.70 54.14 13.0 x 2.68 S 1.79 SW 6.49 S x x Other 11/16/2012 03:01 PM   x x x x x 0.02 Unknown
09/21/2021 02:28 AM 48.74 10.40 88.70 54.14 13.0 x 2.24 S 1.12 SE 5.82 S x x Other 11/16/2012 03:01 PM   x x x x x 0.02 Unknown
09/21/2021 02:29 AM 48.74 10.40 88.70 54.14 13.0 x 1.34 S 1.12 SW 5.82 S x x Other 11/16/2012 03:01 PM   x x x x x 0.02 Unknown
09/21/2021 02:30 AM 48.74 10.40 88.70 54.14 13.0 x 1.34 S 1.79 S 5.14 S x x Other 11/16/2012 03:01 PM   x x x x x 0.02 Unknown
09/21/2021 02:31 AM 48.56 10.22 88.70 54.14 13.0 x 1.12 S 1.57 S 5.14 S x x Other 11/16/2012 03:01 PM   x x x x x 0.02 Unknown
09/21/2021 02:32 AM 48.56 10.22 88.70 54.14 13.0 x 0.89 S 1.34 S 5.14 S x x Other 11/16/2012 03:01 PM   x x x x x 0.02 Unknown
09/21/2021 02:33 AM 48.56 10.04 88.70 54.14 13.0 x 1.12 S 0.45 SW 4.70 S x x Other 11/16/2012 03:01 PM   x x x x x 0.02 Unknown
09/21/2021 02:34 AM 48.56 10.40 88.70 54.14 13.0 x 1.34 SW 1.79 SW 4.70 S x x Other 11/16/2012 03:01 PM   x x x x x 0.02 Unknown
09/21/2021 02:35 AM 48.74 10.40 88.70 54.14 13.0 x 1.34 W 1.57 W 4.70 S x x Other 11/16/2012 03:01 PM   x x x x x 0.02 Unknown
09/21/2021 02:36 AM 48.74 10.58 88.70 54.14 13.0 x 1.34 W 0.45 W 2.91 S x x Other 11/16/2012 03:01 PM   x x x x x 0.02 Unknown
09/21/2021 02:37 AM 48.92 10.76 88.70 54.14 13.0 x 1.34 W 0.89 W 2.91 SW x x Other 11/16/2012 03:01 PM   x x x x x 0.02 Unknown
09/21/2021 02:38 AM 48.92 10.76 88.70 54.14 13.0 x 1.79 SW 2.46 SW 2.91 SW x x Other 11/16/2012 03:01 PM   x x x x x 0.02 Unknown
09/21/2021 02:39 AM 48.92 10.58 88.70 54.14 13.0 x 2.46 SW 3.13 SW 3.36 SW x x Other 11/16/2012 03:01 PM   x x x x x 0.02 Unknown
09/21/2021 02:40 AM 48.92 10.76 88.70 54.14 13.0 x 2.91 SW 3.36 SW 3.80 SW x x Other 11/16/2012 03:01 PM   x x x x x 0.02 Unknown
09/21/2021 02:41 AM 48.74 10.58 88.70 54.14 13.0 x 3.13 SW 2.24 SW 3.80 SW x x Other 11/16/2012 03:01 PM   x x x x x 0.02 Unknown
09/21/2021 02:42 AM 48.74 10.58 88.70 54.14 13.0 x 3.36 SW 4.03 SW 4.25 SW x x Other 11/16/2012 03:01 PM   x x x x x 0.02 Unknown
09/21/2021 02:43 AM 48.74 10.40 88.70 54.14 13.0 x 3.80 SW 4.70 SW 4.47 SW x x Other 11/16/2012 03:01 PM   x x x x x 0.02 Unknown
09/21/2021 02:44 AM 48.74 10.40 88.70 54.14 13.0 x 4.25 SW 3.36 SW 4.92 SW x x Other 11/16/2012 03:01 PM   x x x x x 0.02 Unknown
09/21/2021 02:45 AM 48.74 10.40 88.70 54.14 13.0 x 4.03 SW 3.80 SW 4.92 SW x x Other 11/16/2012 03:01 PM   x x x x x 0.02 Unknown
09/21/2021 02:46 AM 48.56 10.40 88.70 54.14 13.0 x 3.58 SW 3.13 SW 4.92 SW x x Other 11/16/2012 03:01 PM   x x x x x 0.02 Unknown
09/21/2021 02:47 AM 48.56 10.40 88.70 54.14 13.0 x 3.36 SW 3.36 SW 4.92 SW x x Other 11/16/2012 03:01 PM   x x x x x 0.02 Unknown
09/21/2021 02:48 AM 48.56 10.40 88.70 54.14 13.0 x 2.68 SW 0.89 SW 4.92 SW x x Other 11/16/2012 03:01 PM   x x x x x 0.02 Unknown
09/21/2021 02:49 AM 48.56 10.40 88.70 54.14 13.0 x 1.79 SW 1.79 SW 4.92 SW x x Other 11/16/2012 03:01 PM   x x x x x 0.02 Unknown
09/21/2021 02:50 AM 48.74 10.40 88.70 54.14 13.0 x 1.79 SW 1.79 SW 4.92 SW x x Other 11/16/2012 03:01 PM   x x x x x 0.02 Unknown
09/21/2021 02:51 AM 48.74 10.40 88.70 54.14 13.0 x 2.01 SW 2.01 SW 4.92 SW x x Other 11/16/2012 03:01 PM   x x x x x 0.02 Unknown
09/21/2021 02:52 AM 48.74 10.40 88.70 54.14 13.0 x 2.24 SW 1.57 SW 4.92 SW x x Other 11/16/2012 03:01 PM   x x x x x 0.02 Unknown
09/21/2021 02:53 AM 48.74 10.40 88.70 54.14 13.0 x 1.57 W 0.22 S 4.92 SW x x Other 11/16/2012 03:01 PM   x x x x x 0.02 Unknown
09/21/2021 02:54 AM 48.74 10.58 88.70 54.14 13.0 x 1.34 W 1.12 NW 4.47 SW x x Other 11/16/2012 03:01 PM   x x x x x 0.02 Unknown
09/21/2021 02:55 AM 48.92 10.76 88.70 54.14 13.0 x 1.57 W 0.45 NW 4.25 SW x x Other 11/16/2012 03:01 PM   x x x x x 0.02 Unknown
09/21/2021 02:56 AM 48.92 10.76 88.70 54.14 13.0 x 0.89 W 0.22 W 4.25 SW x x Other 11/16/2012 03:01 PM   x x x x x 0.02 Unknown
09/21/2021 02:57 AM 48.92 10.76 88.70 54.14 13.0 x 0.45 W 0.00 NW 4.25 SW x x Other 11/16/2012 03:01 PM   x x x x x 0.02 Unknown
09/21/2021 02:58 AM 49.10 10.94 88.70 54.14 13.0 x 0.45 NW 1.34 NW 4.25 SW x x Other 11/16/2012 03:01 PM   x x x x x 0.02 Unknown
09/21/2021 02:59 AM 49.10 10.94 88.70 54.14 13.0 x 0.67 NW 0.45 NW 4.25 SW x x Other 11/16/2012 03:01 PM   x x x x x 0.02 Unknown
09/21/2021 03:00 AM 49.28 10.94 88.70 54.14 13.0 x 0.89 NW 1.57 NW 4.25 SW x x Other 11/16/2012 03:01 PM   x x x x x 0.02 Unknown
09/21/2021 03:01 AM 49.28 10.58 88.70 54.14 13.0 x 1.12 NW 1.12 NW 4.25 SW x x Other 11/16/2012 03:01 PM   x x x x x 0.02 Unknown
09/21/2021 03:02 AM 49.28 10.40 88.70 54.14 13.0 x 0.89 NW 0.00 N 4.25 SW x x Other 11/16/2012 03:01 PM   x x x x x 0.02 Unknown
09/21/2021 03:03 AM 49.46 10.58 88.70 54.14 13.0 x 0.45 NW 1.12 SW 4.25 SW x x Other 11/16/2012 03:01 PM   x x x x x 0.02 Unknown
09/21/2021 03:04 AM 49.46 10.58 88.70 54.14 13.0 x 0.22 N 0.00 NW 1.79 NW x x Other 11/16/2012 03:01 PM   x x x x x 0.02 Unknown
09/21/2021 03:05 AM 49.46 10.58 88.70 54.14 13.0 x 0.00 W 0.00 SE 1.79 NW x x Other 11/16/2012 03:01 PM   x x x x x 0.02 Unknown
09/21/2021 03:06 AM 49.46 10.58 88.70 54.14 13.0 x 0.22 S 1.57 SE 1.79 S x x Other 11/16/2012 03:01 PM   x x x x x 0.02 Unknown
09/21/2021 03:07 AM 49.46 10.58 88.70 54.14 13.0 x 1.34 S 3.13 S 4.03 S x x Other 11/16/2012 03:01 PM   x x x x x 0.02 Unknown
09/21/2021 03:08 AM 49.28 10.40 88.70 54.14 13.0 x 2.01 S 2.46 S 4.03 S x x Other 11/16/2012 03:01 PM   x x x x x 0.02 Unknown
09/21/2021 03:09 AM 49.10 10.22 88.70 54.14 13.0 x 2.24 S 2.01 S 4.03 S x x Other 11/16/2012 03:01 PM   x x x x x 0.02 Unknown
09/21/2021 03:10 AM 49.10 10.04 88.70 54.14 13.0 x 1.79 S 0.22 S 4.03 S x x Other 11/16/2012 03:01 PM   x x x x x 0.02 Unknown
09/21/2021 03:11 AM 48.92 10.04 88.70 54.14 13.0 x 1.12 S 1.34 SW 4.03 S x x Other 11/16/2012 03:01 PM   x x x x x 0.02 Unknown
09/21/2021 03:12 AM 48.74 9.68 88.70 54.14 13.0 x 0.67 S 0.00 SE 4.03 S x x Other 11/16/2012 03:01 PM   x x x x x 0.02 Unknown
09/21/2021 03:13 AM 48.74 9.68 88.70 54.14 13.0 x 0.22 S 0.00 S 4.03 S x x Other 11/16/2012 03:01 PM   x x x x x 0.02 Unknown
09/21/2021 03:14 AM 48.56 9.50 88.70 54.14 13.0 x 0.00 S 0.00 E 4.03 S x x Other 11/16/2012 03:01 PM   x x x x x 0.02 Unknown
09/21/2021 03:15 AM 48.38 9.50 88.70 54.14 13.0 x 0.00 S 0.00 NE 4.03 S x x Other 11/16/2012 03:01 PM   x x x x x 0.02 Unknown
09/21/2021 03:16 AM 48.20 9.86 88.70 54.14 13.0 x 0.00 NE 0.00 E 4.03 S x x Other 11/16/2012 03:01 PM   x x x x x 0.02 Unknown
09/21/2021 03:17 AM 48.20 9.86 88.70 54.14 13.0 x 0.22 NE 1.12 S 3.36 S x x Other 11/16/2012 03:01 PM   x x x x x 0.02 Unknown
09/21/2021 03:18 AM 48.20 10.40 88.70 54.14 14.0 x 1.34 S 2.24 SW 4.25 S x x Other 11/16/2012 03:01 PM   x x x x x 0.02 Unknown
09/21/2021 03:19 AM 48.38 10.58 88.70 54.14 14.0 x 2.46 S 1.79 SW 4.47 S x x Other 11/16/2012 03:01 PM   x x x x x 0.02 Unknown
09/21/2021 03:20 AM 48.56 10.40 88.70 54.14 13.0 x 2.01 SW 0.00 SW 4.47 S x x Other 11/16/2012 03:01 PM   x x x x x 0.02 Unknown
09/21/2021 03:21 AM 48.74 10.58 88.70 54.14 13.0 x 0.89 SW 1.12 W 4.47 S x x Other 11/16/2012 03:01 PM   x x x x x 0.02 Unknown
09/21/2021 03:22 AM 48.92 10.76 88.70 54.14 13.0 x 0.89 NW 0.22 W 4.47 S x x Other 11/16/2012 03:01 PM   x x x x x 0.02 Unknown
09/21/2021 03:23 AM 48.92 10.76 88.70 54.14 13.0 x 1.34 NW 2.01 NW 4.47 S x x Other 11/16/2012 03:01 PM   x x x x x 0.02 Unknown
09/21/2021 03:24 AM 49.10 10.94 88.70 54.14 13.0 x 1.57 NW 1.57 NW 4.47 S x x Other 11/16/2012 03:01 PM   x x x x x 0.02 Unknown
09/21/2021 03:25 AM 49.28 10.40 88.70 54.14 13.0 x 1.79 NW 2.01 N 4.47 S x x Other 11/16/2012 03:01 PM   x x x x x 0.02 Unknown
09/21/2021 03:26 AM 49.28 10.40 88.70 54.14 13.0 x 2.01 NW 2.24 NW 4.47 S x x Other 11/16/2012 03:01 PM   x x x x x 0.02 Unknown
09/21/2021 03:27 AM 49.28 10.40 88.70 54.14 13.0 x 2.01 N 1.57 N 4.47 S x x Other 11/16/2012 03:01 PM   x x x x x 0.02 Unknown
09/21/2021 03:28 AM 49.28 10.40 88.70 54.14 13.0 x 1.79 NW 2.01 NW 3.13 S x x Other 11/16/2012 03:01 PM   x x x x x 0.02 Unknown
09/21/2021 03:30 AM 49.28 10.40 88.70 54.14 13.0 x 1.79 NW 1.34 NW 2.68 NW x x Other 11/16/2012 03:01 PM   x x x x x 0.02 Unknown
09/21/2021 03:31 AM 49.28 10.40 88.70 54.14 13.0 x 1.57 N 2.24 N 2.68 NW x x Other 11/16/2012 03:01 PM   x x x x x 0.02 Unknown
09/21/2021 03:32 AM 49.46 10.58 88.70 54.14 13.0 x 1.57 N 1.57 NW 2.68 NW x x Other 11/16/2012 03:01 PM   x x x x x 0.02 Unknown
09/21/2021 03:33 AM 49.46 10.58 88.70 54.14 13.0 x 1.79 NW 1.34 N 2.68 NW x x Other 11/16/2012 03:01 PM   x x x x x 0.02 Unknown
09/21/2021 03:34 AM 49.46 10.58 88.70 54.14 13.0 x 2.01 NW 2.68 N 2.68 NW x x Other 11/16/2012 03:01 PM   x x x x x 0.02 Unknown
09/21/2021 03:35 AM 49.46 10.58 88.70 54.14 13.0 x 2.68 NW 2.91 NW 3.58 NW x x Other 11/16/2012 03:01 PM   x x x x x 0.02 Unknown
09/21/2021 03:36 AM 49.28 10.40 88.70 54.14 13.0 x 2.68 NW 2.46 NW 3.58 NW x x Other 11/16/2012 03:01 PM   x x x x x 0.02 Unknown
09/21/2021 03:37 AM 49.28 10.40 88.70 54.14 13.0 x 2.46 NW 2.46 NW 3.58 NW x x Other 11/16/2012 03:01 PM   x x x x x 0.02 Unknown
09/21/2021 03:38 AM 49.10 10.40 88.70 54.14 13.0 x 2.24 NW 2.01 NW 3.58 NW x x Other 11/16/2012 03:01 PM   x x x x x 0.02 Unknown
09/21/2021 03:39 AM 49.10 10.22 88.70 54.14 13.0 x 2.24 NW 2.01 W 3.58 NW x x Other 11/16/2012 03:01 PM   x x x x x 0.02 Unknown
09/21/2021 03:40 AM 48.92 10.04 88.70 54.14 13.0 x 2.46 NW 2.68 W 3.58 NW x x Other 11/16/2012 03:01 PM   x x x x x 0.02 Unknown
09/21/2021 03:41 AM 48.92 10.04 88.70 54.14 13.0 x 2.91 W 3.36 NW 3.58 NW x x Other 11/16/2012 03:01 PM   x x x x x 0.02 Unknown
09/21/2021 03:42 AM 48.92 10.04 88.70 54.14 13.0 x 3.36 W 3.80 NW 3.80 NW x x Other 11/16/2012 03:01 PM   x x x x x 0.02 Unknown
09/21/2021 03:43 AM 48.92 10.04 88.70 54.14 13.0 x 3.36 NW 3.13 NW 3.80 NW x x Other 11/16/2012 03:01 PM   x x x x x 0.02 Unknown
09/21/2021 03:44 AM 48.92 10.04 88.70 54.14 13.0 x 3.58 NW 3.80 NW 3.80 NW x x Other 11/16/2012 03:01 PM   x x x x x 0.02 Unknown
09/21/2021 03:45 AM 48.74 9.86 88.70 54.14 13.0 x 3.36 NW 3.80 NW 3.80 NW x x Other 11/16/2012 03:01 PM   x x x x x 0.02 Unknown
09/21/2021 03:46 AM 48.74 9.86 88.70 54.14 13.0 x 3.58 NW 2.91 W 4.47 W x x Other 11/16/2012 03:01 PM   x x x x x 0.02 Unknown
09/21/2021 03:47 AM 48.56 9.86 88.70 54.14 13.0 x 4.03 NW 4.70 W 4.70 W x x Other 11/16/2012 03:01 PM   x x x x x 0.02 Unknown
09/21/2021 03:48 AM 48.56 10.22 88.70 54.14 13.0 x 4.25 W 4.70 NW 4.92 W Yes x Other 11/16/2012 03:01 PM   x x x x x 0.02 Unknown
09/21/2021 03:49 AM 48.56 10.04 88.70 54.14 13.0 x 4.47 NW 4.70 NW 4.92 W x x Other 11/16/2012 03:01 PM   x x x x x 0.02 Unknown
09/21/2021 03:50 AM 48.56 10.04 88.70 54.14 13.0 x 4.47 NW 4.47 NW 4.92 W x x Other 11/16/2012 03:01 PM   x x x x x 0.02 Unknown
09/21/2021 03:51 AM 48.38 10.22 88.70 54.14 13.0 x 4.70 NW 4.92 NW 5.14 NW x x Other 11/16/2012 03:01 PM   x x x x x 0.02 Unknown
09/21/2021 03:52 AM 48.38 10.76 88.70 54.14 14.0 x 4.92 NW 5.37 W 5.59 NW x x Other 11/16/2012 03:01 PM   x x x x x 0.02 Unknown
09/21/2021 03:53 AM 48.38 10.76 88.70 54.14 14.0 x 5.14 NW 5.59 NW 5.59 NW x x Other 11/16/2012 03:01 PM   x x x x x 0.02 Unknown
09/21/2021 03:54 AM 48.38 10.76 88.70 54.14 14.0 x 5.14 NW 5.37 NW 6.04 NW x x Other 11/16/2012 03:01 PM   x x x x x 0.02 Unknown
09/21/2021 03:55 AM 48.38 10.76 88.70 54.14 14.0 x 5.14 NW 5.37 NW 6.04 NW x x Other 11/16/2012 03:01 PM   x x x x x 0.02 Unknown
09/21/2021 03:56 AM 48.38 10.76 88.70 54.14 14.0 x 4.92 NW 4.70 NW 6.04 NW x x Other 11/16/2012 03:01 PM   x x x x x 0.02 Unknown
09/21/2021 03:57 AM 48.56 10.94 88.70 54.14 14.0 x 4.92 NW 5.14 NW 6.04 NW x x Other 11/16/2012 03:01 PM   x x x x x 0.02 Unknown
09/21/2021 03:58 AM 48.38 11.30 88.70 54.14 14.0 x 4.92 NW 5.14 NW 6.04 NW x x Other 11/16/2012 03:01 PM   x x x x x 0.02 Unknown
09/21/2021 03:59 AM 48.38 11.30 88.70 54.14 14.0 x 4.92 NW 4.92 NW 6.04 NW x x Other 11/16/2012 03:01 PM   x x x x x 0.02 Unknown
09/21/2021 04:00 AM 48.38 11.30 88.70 54.14 14.0 x 4.92 NW 4.70 NW 6.04 NW x x Other 11/16/2012 03:01 PM   x x x x x 0.02 Unknown
09/21/2021 04:01 AM 48.38 11.30 88.70 54.14 14.0 x 4.70 NW 4.25 NW 6.04 NW x x Other 11/16/2012 03:01 PM   x x x x x 0.02 Unknown
09/21/2021 04:02 AM 48.38 11.30 88.70 54.14 14.0 x 4.25 NW 3.58 NW 6.04 NW x x Other 11/16/2012 03:01 PM   x x x x x 0.02 Unknown
09/21/2021 04:03 AM 48.20 11.84 88.70 54.14 14.0 x 3.80 NW 3.36 NW 5.59 NW x x Other 11/16/2012 03:01 PM   x x x x x 0.02 Unknown
09/21/2021 04:04 AM 48.20 11.66 88.70 54.14 14.0 x 3.36 NW 2.46 NW 5.59 NW x x Other 11/16/2012 03:01 PM   x x x x x 0.02 Unknown
09/21/2021 04:05 AM 48.20 11.66 88.70 54.14 14.0 x 2.91 NW 2.91 NW 5.59 NW x x Other 11/16/2012 03:01 PM   x x x x x 0.02 Unknown
09/21/2021 04:06 AM 48.20 11.66 88.70 54.14 14.0 x 2.68 NW 2.68 NW 5.59 NW x x Other 11/16/2012 03:01 PM   x x x x x 0.02 Unknown
09/21/2021 04:07 AM 48.20 11.84 88.70 54.14 14.0 x 2.68 NW 3.13 NW 5.59 NW x x Other 11/16/2012 03:01 PM   x x x x x 0.02 Unknown
09/21/2021 04:08 AM 48.20 11.84 88.70 54.14 14.0 x 2.91 NW 3.58 NW 5.59 NW x x Other 11/16/2012 03:01 PM   x x x x x 0.02 Unknown
09/21/2021 04:09 AM 48.38 12.02 88.70 54.14 14.0 x 3.13 NW 2.91 NW 4.92 NW x x Other 11/16/2012 03:01 PM   x x x x x 0.02 Unknown
09/21/2021 04:11 AM 48.56 11.66 88.70 54.14 14.0 x 2.68 NW 0.89 N 4.25 NW x x Other 11/16/2012 03:01 PM   x x x x x 0.02 Unknown
09/21/2021 04:12 AM 48.74 11.84 88.70 54.14 14.0 x 1.79 N 2.24 N 3.80 NW x x Other 11/16/2012 03:01 PM   x x x x x 0.02 Unknown
09/21/2021 04:13 AM 48.92 11.48 88.70 54.14 14.0 x 1.57 N 2.91 N 3.58 N x x Other 11/16/2012 03:01 PM   x x x x x 0.02 Unknown
09/21/2021 04:14 AM 49.10 11.48 88.70 54.14 14.0 x 2.68 NW 3.13 N 4.70 NW x x Other 11/16/2012 03:01 PM   x x x x x 0.02 Unknown
09/21/2021 04:15 AM 49.28 11.66 88.70 54.14 13.0 x 3.36 N 2.91 N 4.70 NW x x Other 11/16/2012 03:01 PM   x x x x x 0.02 Unknown
09/21/2021 04:16 AM 49.46 11.30 88.70 54.14 13.0 x 3.13 N 3.58 N 4.70 NW x x Other 11/16/2012 03:01 PM   x x x x x 0.02 Unknown
09/21/2021 04:17 AM 49.46 11.30 88.70 54.14 13.0 x 3.36 N 3.36 NW 4.70 NW x x Other 11/16/2012 03:01 PM   x x x x x 0.02 Unknown
09/21/2021 04:18 AM 49.46 11.30 88.70 54.14 13.0 x 3.36 NW 3.13 NW 4.70 NW x x Other 11/16/2012 03:01 PM   x x x x x 0.02 Unknown
09/21/2021 04:19 AM 49.46 11.30 88.70 54.14 13.0 x 3.36 NW 3.36 NW 4.70 NW x x Other 11/16/2012 03:01 PM   x x x x x 0.02 Unknown
09/21/2021 04:20 AM 49.28 11.12 88.70 54.14 13.0 x 3.13 NW 4.25 NW 4.70 NW x x Other 11/16/2012 03:01 PM   x x x x x 0.02 Unknown
09/21/2021 04:21 AM 49.28 11.12 88.70 54.14 13.0 x 3.13 NW 3.80 N 4.70 NW x x Other 11/16/2012 03:01 PM   x x x x x 0.02 Unknown
09/21/2021 04:22 AM 49.28 11.12 88.70 54.14 13.0 x 3.36 N 3.80 NW 4.70 NW x x Other 11/16/2012 03:01 PM   x x x x x 0.02 Unknown
09/21/2021 04:23 AM 49.10 10.94 88.70 54.14 13.0 x 3.13 N 2.68 NW 4.70 NW x x Other 11/16/2012 03:01 PM   x x x x x 0.02 Unknown
09/21/2021 04:24 AM 48.92 10.76 88.70 54.14 13.0 x 2.91 NW 2.91 NW 4.25 N x x Other 11/16/2012 03:01 PM   x x x x x 0.02 Unknown
09/21/2021 04:25 AM 48.74 11.12 88.70 54.14 14.0 x 2.68 NW 2.91 NW 4.25 N x x Other 11/16/2012 03:01 PM   x x x x x 0.02 Unknown
09/21/2021 04:26 AM 48.74 11.12 88.70 54.14 14.0 x 2.46 NW 2.24 NW 4.25 N x x Other 11/16/2012 03:01 PM   x x x x x 0.02 Unknown
09/21/2021 04:27 AM 48.56 10.94 88.70 54.14 14.0 x 2.24 NW 2.46 NW 4.25 N x x Other 11/16/2012 03:01 PM   x x x x x 0.02 Unknown
09/21/2021 04:28 AM 48.20 11.12 88.70 54.14 14.0 x 2.46 NW 3.13 W 4.25 N x x Other 11/16/2012 03:01 PM   x x x x x 0.02 Unknown
09/21/2021 04:29 AM 48.20 11.12 88.70 54.14 14.0 x 2.01 NW 1.57 W 4.25 N x x Other 11/16/2012 03:01 PM   x x x x x 0.02 Unknown
09/21/2021 04:30 AM 47.84 11.48 88.70 54.14 14.0 x 1.79 W 2.68 W 4.03 SW x x Other 11/16/2012 03:01 PM   x x x x x 0.02 Unknown
09/21/2021 04:31 AM 47.66 11.84 88.70 54.14 15.0 x 2.68 W 2.68 W 4.03 SW x x Other 11/16/2012 03:01 PM   x x x x x 0.02 Unknown
09/21/2021 04:32 AM 47.66 11.84 88.70 54.14 15.0 x 3.13 W 2.91 NW 4.03 SW Yes x Other 11/16/2012 03:01 PM   x x x x x 0.02 Unknown
09/21/2021 04:33 AM 47.66 11.66 88.70 54.14 15.0 x 2.46 W 2.01 W 4.03 SW x x Other 11/16/2012 03:01 PM   x x x x x 0.02 Unknown
09/21/2021 04:34 AM 47.48 12.20 88.70 54.14 15.0 x 2.01 W 1.79 NW 4.03 SW x x Other 11/16/2012 03:01 PM   x x x x x 0.02 Unknown
09/21/2021 04:35 AM 47.48 12.02 88.70 54.14 15.0 x 1.79 W 2.24 NW 4.03 SW x x Other 11/16/2012 03:01 PM   x x x x x 0.02 Unknown
09/21/2021 04:36 AM 47.30 12.56 88.70 54.14 15.0 x 1.79 NW 2.01 W 4.03 SW x x Other 11/16/2012 03:01 PM   x x x x x 0.02 Unknown
09/21/2021 04:37 AM 47.30 12.56 88.70 54.14 15.0 x 1.57 NW 0.22 NW 4.03 SW x x Other 11/16/2012 03:01 PM   x x x x x 0.02 Unknown
09/21/2021 04:39 AM 47.48 12.74 88.70 54.14 15.0 x 1.79 NW 2.01 NW 4.03 NW x x Other 11/16/2012 03:01 PM   x x x x x 0.02 Unknown
09/21/2021 04:40 AM 47.48 12.74 88.70 54.14 15.0 x 2.01 NW 1.79 NW 3.58 W x x Other 11/16/2012 03:01 PM   x x x x x 0.02 Unknown
09/21/2021 04:41 AM 47.66 12.92 88.70 54.14 15.0 x 2.01 W 1.57 NW 3.13 W x x Other 11/16/2012 03:01 PM   x x x x x 0.02 Unknown
09/21/2021 04:42 AM 47.66 12.92 88.70 54.14 15.0 x 1.79 NW 2.01 NW 2.91 NW x x Other 11/16/2012 03:01 PM   x x x x x 0.02 Unknown
09/21/2021 04:43 AM 47.66 12.92 88.70 54.14 15.0 x 2.01 NW 1.79 W 2.91 NW x x Other 11/16/2012 03:01 PM   x x x x x 0.02 Unknown
09/21/2021 04:44 AM 47.66 12.92 88.70 54.14 15.0 x 1.34 NW 0.22 N 2.91 NW x x Other 11/16/2012 03:01 PM   x x x x x 0.02 Unknown
09/21/2021 04:45 AM 47.66 12.56 88.70 54.14 15.0 x 1.12 NW 1.79 W 2.91 NW x x Other 11/16/2012 03:01 PM   x x x x x 0.02 Unknown
09/21/2021 04:46 AM 47.66 12.38 88.70 54.14 15.0 x 1.57 W 1.57 W 2.91 NW x x Other 11/16/2012 03:01 PM   x x x x x 0.02 Unknown
09/21/2021 04:47 AM 47.66 12.38 88.70 54.14 15.0 x 2.01 W 2.01 NW 3.13 NW x x Other 11/16/2012 03:01 PM   x x x x x 0.02 Unknown
09/21/2021 04:48 AM 47.66 12.38 88.70 54.14 15.0 x 2.24 NW 2.24 NW 3.13 NW x x Other 11/16/2012 03:01 PM   x x x x x 0.02 Unknown
09/21/2021 04:50 AM 47.66 12.38 88.70 54.14 15.0 x 2.24 W 2.91 NW 3.36 NW x x Other 11/16/2012 03:01 PM   x x x x x 0.02 Unknown
09/21/2021 04:51 AM 47.66 12.38 88.70 54.14 15.0 x 2.68 W 3.13 W 3.36 NW x x Other 11/16/2012 03:01 PM   x x x x x 0.02 Unknown
09/21/2021 04:52 AM 47.66 12.38 88.70 54.14 15.0 x 2.68 W 2.91 W 3.36 NW x x Other 11/16/2012 03:01 PM   x x x x x 0.02 Unknown
09/21/2021 04:53 AM 47.66 12.38 88.70 54.14 15.0 x 2.68 W 1.79 W 3.36 NW x x Other 11/16/2012 03:01 PM   x x x x x 0.02 Unknown
09/21/2021 04:54 AM 47.84 12.38 88.70 54.14 15.0 x 2.24 W 2.24 W 3.36 NW x x Other 11/16/2012 03:01 PM   x x x x x 0.02 Unknown
09/21/2021 04:55 AM 47.84 12.56 88.70 54.14 15.0 x 1.79 W 1.79 NW 3.36 NW x x Other 11/16/2012 03:01 PM   x x x x x 0.02 Unknown
09/21/2021 04:56 AM 47.84 12.56 88.70 54.14 15.0 x 2.01 NW 2.46 W 3.36 NW x x Other 11/16/2012 03:01 PM   x x x x x 0.02 Unknown
09/21/2021 04:57 AM 47.84 12.02 88.70 54.14 15.0 x 2.24 NW 2.24 W 3.36 NW x x Other 11/16/2012 03:01 PM   x x x x x 0.02 Unknown
09/21/2021 04:58 AM 47.84 12.02 88.70 54.14 15.0 x 2.24 W 2.24 W 3.36 NW x x Other 11/16/2012 03:01 PM   x x x x x 0.02 Unknown
09/21/2021 04:59 AM 47.84 12.02 88.70 54.14 15.0 x 2.01 W 1.79 W 3.36 NW x x Other 11/16/2012 03:01 PM   x x x x x 0.02 Unknown
09/21/2021 05:00 AM 47.84 12.02 88.70 54.14 15.0 x 2.01 W 2.01 NW 3.36 W x x Other 11/16/2012 03:01 PM   x x x x x 0.02 Unknown
09/21/2021 05:01 AM 47.84 12.02 88.70 54.14 15.0 x 2.01 W 2.24 SW 3.13 NW x x Other 11/16/2012 03:01 PM   x x x x x 0.02 Unknown
09/21/2021 05:02 AM 47.84 12.02 88.70 54.14 15.0 x 1.79 W 2.01 W 3.13 NW x x Other 11/16/2012 03:01 PM   x x x x x 0.02 Unknown
09/21/2021 05:03 AM 47.84 12.02 88.70 54.14 15.0 x 1.57 W 1.79 W 3.13 NW x x Other 11/16/2012 03:01 PM   x x x x x 0.02 Unknown
09/21/2021 05:04 AM 47.84 12.02 88.70 54.14 15.0 x 1.34 W 1.79 NW 3.13 NW x x Other 11/16/2012 03:01 PM   x x x x x 0.02 Unknown
09/21/2021 05:05 AM 47.84 12.02 88.70 54.14 15.0 x 1.57 W 2.01 NW 3.13 NW x x Other 11/16/2012 03:01 PM   x x x x x 0.02 Unknown
09/21/2021 05:06 AM 47.84 12.02 88.70 54.14 15.0 x 1.79 W 1.79 W 3.13 NW x x Other 11/16/2012 03:01 PM   x x x x x 0.02 Unknown
09/21/2021 05:07 AM 47.84 12.02 88.70 54.14 15.0 x 1.79 NW 1.57 W 3.13 NW x x Other 11/16/2012 03:01 PM   x x x x x 0.02 Unknown
09/21/2021 05:08 AM 47.84 12.02 88.70 54.14 15.0 x 1.57 NW 1.79 W 3.13 NW x x Other 11/16/2012 03:01 PM   x x x x x 0.02 Unknown
09/21/2021 05:09 AM 47.84 11.84 88.70 54.14 15.0 x 1.34 W 1.12 W 3.13 NW x x Other 11/16/2012 03:01 PM   x x x x x 0.02 Unknown
09/21/2021 05:10 AM 47.84 11.84 88.70 54.14 15.0 x 1.34 W 1.34 NW 3.13 W x x Other 11/16/2012 03:01 PM   x x x x x 0.02 Unknown
09/21/2021 05:11 AM 47.84 11.84 88.70 54.14 15.0 x 1.12 NW 1.34 W 2.91 NW x x Other 11/16/2012 03:01 PM   x x x x x 0.02 Unknown
09/21/2021 05:12 AM 47.84 12.02 88.70 54.14 15.0 x 1.12 NW 1.12 NW 2.91 NW x x Other 11/16/2012 03:01 PM   x x x x x 0.02 Unknown
09/21/2021 05:13 AM 47.84 12.02 88.70 54.14 15.0 x 1.12 NW 1.12 NW 2.91 NW x x Other 11/16/2012 03:01 PM   x x x x x 0.02 Unknown
09/21/2021 05:14 AM 47.84 12.02 88.70 54.14 15.0 x 1.12 NW 1.12 NW 2.91 NW x x Other 11/16/2012 03:01 PM   x x x x x 0.02 Unknown
09/21/2021 05:15 AM 48.02 12.20 88.70 54.14 15.0 x 1.34 NW 1.79 W 2.91 NW x x Other 11/16/2012 03:01 PM   x x x x x 0.02 Unknown
09/21/2021 05:16 AM 48.02 12.20 88.70 54.14 15.0 x 0.89 NW 0.22 NW 2.91 NW x x Other 11/16/2012 03:01 PM   x x x x x 0.02 Unknown
09/21/2021 05:18 AM 48.02 12.20 88.70 54.14 15.0 x 0.67 NW 0.00 W 2.68 W x x Other 11/16/2012 03:01 PM   x x x x x 0.02 Unknown
09/21/2021 05:21 AM 48.20 12.20 88.70 54.14 15.0 x 0.22 W 0.00 NW 2.68 W x x Other 11/16/2012 03:01 PM   x x x x x 0.02 Unknown
09/21/2021 05:22 AM 48.20 11.84 88.70 54.14 14.0 x 0.45 NW 0.89 SW 2.68 W x x Other 11/16/2012 03:01 PM   x x x x x 0.02 Unknown
09/21/2021 05:23 AM 48.20 11.66 88.70 54.14 14.0 x 0.89 W 0.89 W 2.68 W x x Other 11/16/2012 03:01 PM   x x x x x 0.02 Unknown
09/21/2021 05:24 AM 48.20 11.66 88.70 54.14 14.0 x 1.12 W 0.89 S 2.68 W x x Other 11/16/2012 03:01 PM   x x x x x 0.02 Unknown
09/21/2021 05:25 AM 48.20 11.84 88.70 54.14 14.0 x 1.12 W 0.67 W 2.68 W x x Other 11/16/2012 03:01 PM   x x x x x 0.02 Unknown
09/21/2021 05:26 AM 48.20 11.84 88.70 54.14 14.0 x 1.12 SW 0.67 W 2.01 SW x x Other 11/16/2012 03:01 PM   x x x x x 0.02 Unknown
09/21/2021 05:27 AM 48.20 11.84 88.70 54.14 14.0 x 0.67 W 0.89 W 2.01 SW x x Other 11/16/2012 03:01 PM   x x x x x 0.02 Unknown
09/21/2021 05:28 AM 48.38 11.30 88.70 54.14 14.0 x 0.67 W 1.34 NW 2.01 SW x x Other 11/16/2012 03:01 PM   x x x x x 0.02 Unknown
09/21/2021 05:29 AM 48.38 11.30 88.70 54.14 14.0 x 0.89 NW 0.89 NW 2.01 SW x x Other 11/16/2012 03:01 PM   x x x x x 0.02 Unknown
09/21/2021 05:30 AM 48.38 11.30 88.70 54.14 14.0 x 0.67 NW 0.22 NW 2.01 SW x x Other 11/16/2012 03:01 PM   x x x x x 0.02 Unknown
09/21/2021 05:31 AM 48.38 11.30 88.70 54.14 14.0 x 0.67 NW 0.00 SW 2.01 SW x x Other 11/16/2012 03:01 PM   x x x x x 0.02 Unknown
09/21/2021 05:32 AM 48.38 11.30 88.70 54.14 14.0 x 0.45 SW 0.22 S 2.01 SW x x Other 11/16/2012 03:01 PM   x x x x x 0.02 Unknown
09/21/2021 05:33 AM 48.38 11.48 88.70 54.14 14.0 x 0.89 S 1.34 S 2.91 S x x Other 11/16/2012 03:01 PM   x x x x x 0.02 Unknown
09/21/2021 05:34 AM 48.38 11.30 88.70 54.14 14.0 x 1.79 S 1.79 SE 2.91 S x x Other 11/16/2012 03:01 PM   x x x x x 0.02 Unknown
09/21/2021 05:35 AM 48.38 11.30 88.70 54.14 14.0 x 2.24 S 1.34 S 3.36 S x x Other 11/16/2012 03:01 PM   x x x x x 0.02 Unknown
09/21/2021 05:36 AM 48.20 11.12 88.70 54.14 14.0 x 1.79 S 1.34 S 3.36 S x x Other 11/16/2012 03:01 PM   x x x x x 0.02 Unknown
09/21/2021 05:37 AM 48.20 11.12 88.70 54.14 14.0 x 1.34 S 1.79 NW 3.36 S x x Other 11/16/2012 03:01 PM   x x x x x 0.02 Unknown
09/21/2021 05:38 AM 48.20 11.12 88.70 54.14 14.0 x 1.57 NW 1.34 NW 3.36 S x x Other 11/16/2012 03:01 PM   x x x x x 0.02 Unknown
09/21/2021 05:39 AM 48.20 11.12 88.70 54.14 14.0 x 1.57 NW 1.34 W 3.36 S x x Other 11/16/2012 03:01 PM   x x x x x 0.02 Unknown
09/21/2021 05:40 AM 48.20 11.12 88.70 54.14 14.0 x 1.34 W 1.79 NW 3.36 S x x Other 11/16/2012 03:01 PM   x x x x x 0.02 Unknown
09/21/2021 05:41 AM 48.20 11.12 88.70 54.14 14.0 x 1.57 NW 2.24 NW 3.36 S x x Other 11/16/2012 03:01 PM   x x x x x 0.02 Unknown
09/21/2021 05:42 AM 48.20 11.12 88.70 54.14 14.0 x 1.79 NW 1.57 NW 3.36 S x x Other 11/16/2012 03:01 PM   x x x x x 0.02 Unknown
09/21/2021 05:43 AM 48.20 11.12 88.70 54.14 14.0 x 1.79 W 1.79 W 3.36 S x x Other 11/16/2012 03:01 PM   x x x x x 0.02 Unknown
09/21/2021 05:44 AM 48.20 11.12 88.70 54.14 14.0 x 1.57 W 1.57 NW 2.68 NW x x Other 11/16/2012 03:01 PM   x x x x x 0.02 Unknown
09/21/2021 05:45 AM 48.20 11.12 88.70 54.14 14.0 x 1.12 NW 1.34 W 2.68 NW x x Other 11/16/2012 03:01 PM   x x x x x 0.02 Unknown
09/21/2021 05:46 AM 48.02 10.94 88.70 54.14 14.0 x 1.34 W 1.57 W 2.68 NW x x Other 11/16/2012 03:01 PM   x x x x x 0.02 Unknown
09/21/2021 05:47 AM 48.02 10.94 88.70 54.14 14.0 x 1.57 W 1.57 W 2.46 W x x Other 11/16/2012 03:01 PM   x x x x x x Unknown
09/21/2021 05:48 AM 48.02 10.94 88.70 54.14 14.0 x 1.57 W 1.79 W 2.68 SW x x Other 11/16/2012 03:01 PM   x x x x x 0.02 Unknown
09/21/2021 05:49 AM 48.02 10.94 88.70 54.14 14.0 x 1.57 W 1.12 W 2.68 SW x x Other 11/16/2012 03:01 PM   x x x x x 0.02 Unknown
09/21/2021 05:50 AM 48.02 10.94 88.70 54.14 14.0 x 1.57 W 1.57 W 2.68 SW x x Other 11/16/2012 03:01 PM   x x x x x 0.02 Unknown
09/21/2021 05:51 AM 47.84 10.94 88.70 54.14 14.0 x 1.34 W 1.34 W 2.68 SW x x Other 11/16/2012 03:01 PM   x x x x x 0.02 Unknown
09/21/2021 05:52 AM 47.84 10.94 88.70 54.14 14.0 x 1.12 W 0.89 NW 2.68 SW x x Other 11/16/2012 03:01 PM   x x x x x 0.02 Unknown
09/21/2021 05:53 AM 47.84 10.76 88.70 54.14 14.0 x 0.67 NW 0.00 W 2.68 SW x x Other 11/16/2012 03:01 PM   x x x x x 0.02 Unknown
09/21/2021 05:54 AM 47.84 10.94 88.70 54.14 14.0 x 0.67 W 0.89 NW 2.68 SW x x Other 11/16/2012 03:01 PM   x x x x x 0.02 Unknown
09/21/2021 05:55 AM 48.02 10.94 88.70 54.14 14.0 x 0.67 W 1.79 W 2.68 SW x x Other 11/16/2012 03:01 PM   x x x x x 0.02 Unknown
09/21/2021 05:56 AM 48.02 10.94 88.70 54.14 14.0 x 0.89 W 0.00 W 2.68 SW x x Other 11/16/2012 03:01 PM   x x x x x 0.02 Unknown
09/21/2021 05:57 AM 48.02 10.94 88.70 54.14 14.0 x 0.89 W 0.89 W 2.46 NW x x Other 11/16/2012 03:01 PM   x x x x x 0.02 Unknown
09/21/2021 05:58 AM 48.02 10.94 88.70 54.14 14.0 x 0.89 W 0.89 W 2.24 W x x Other 11/16/2012 03:01 PM   x x x x x 0.02 Unknown
09/21/2021 05:59 AM 48.20 11.12 88.70 54.14 14.0 x 0.67 W 0.00 SW 2.24 W x x Other 11/16/2012 03:01 PM   x x x x x 0.02 Unknown
09/21/2021 06:00 AM 48.20 11.12 88.70 54.14 14.0 x 0.45 SW 0.00 E 2.24 W x x Other 11/16/2012 03:01 PM   x x x x x 0.02 Unknown
09/21/2021 06:01 AM 48.20 11.12 88.70 54.14 14.0 x 0.67 NE 2.46 S 2.68 S x x Other 11/16/2012 03:01 PM   x x x x x 0.02 Unknown
09/21/2021 06:02 AM 48.20 11.30 88.70 54.14 14.0 x 0.67 SW 0.45 S 2.68 S x x Other 11/16/2012 03:01 PM   x x x x x 0.02 Unknown
09/21/2021 06:03 AM 48.20 11.12 88.70 54.14 14.0 x 1.12 S 1.12 SW 2.91 S x x Other 11/16/2012 03:01 PM   x x x x x 0.02 Unknown
09/21/2021 06:04 AM 48.38 11.12 88.70 54.14 14.0 x 1.34 NW 1.12 NW 2.91 S x x Other 11/16/2012 03:01 PM   x x x x x 0.02 Unknown
09/21/2021 06:05 AM 48.38 11.30 88.70 54.14 14.0 x 0.67 NW 0.00 N 2.91 S x x Other 11/16/2012 03:01 PM   x x x x x 0.02 Unknown
09/21/2021 06:06 AM 48.38 11.30 88.70 54.14 14.0 x 0.22 NW 0.45 SE 2.91 S x x Other 11/16/2012 03:01 PM   x x x x x 0.02 Unknown
09/21/2021 06:07 AM 48.38 10.76 88.70 54.14 14.0 x 0.67 S 0.89 SE 2.91 S x x Other 11/16/2012 03:01 PM   x x x x x 0.02 Unknown
09/21/2021 06:08 AM 48.20 10.58 88.70 54.14 14.0 x 1.12 S 0.00 S 3.13 SE x x Other 11/16/2012 03:01 PM   x x x x x 0.02 Unknown
09/21/2021 06:09 AM 48.20 10.58 88.70 54.14 14.0 x 1.57 S 1.34 W 3.13 SE x x Other 11/16/2012 03:01 PM   x x x x x 0.02 Unknown
09/21/2021 06:10 AM 48.20 10.58 88.70 54.14 14.0 x 2.24 S 3.13 S 4.47 S x x Other 11/16/2012 03:01 PM   x x x x x 0.02 Unknown
09/21/2021 06:11 AM 48.20 10.58 88.70 54.14 14.0 x 2.91 S 2.46 W 4.70 SW x x Other 11/16/2012 03:01 PM   x x x x x 0.02 Unknown
09/21/2021 06:12 AM 48.20 10.58 88.70 54.14 14.0 x 2.24 SW 0.45 W 4.70 SW x x Other 11/16/2012 03:01 PM   x x x x x 0.02 Unknown
09/21/2021 06:13 AM 48.20 10.58 88.70 54.14 14.0 x 0.89 NW 0.00 NW 4.70 SW x x Other 11/16/2012 03:01 PM   x x x x x 0.02 Unknown
09/21/2021 06:14 AM 48.20 10.58 88.70 54.14 14.0 x 0.89 NW 2.24 SW 4.70 SW x x Other 11/16/2012 03:01 PM   x x x x x 0.02 Unknown
09/21/2021 06:15 AM 48.20 10.58 88.70 54.14 14.0 x 1.12 NW 2.91 SE 4.70 SW x x Other 11/16/2012 03:01 PM   x x x x x 0.02 Unknown
09/21/2021 06:16 AM 48.38 10.76 88.70 54.14 14.0 x 1.79 SE 2.91 S 4.70 SW x x Other 11/16/2012 03:01 PM   x x x x x 0.02 Unknown
09/21/2021 06:17 AM 48.38 10.76 88.70 54.14 14.0 x 2.24 S 2.46 S 4.70 SW x x Other 11/16/2012 03:01 PM   x x x x x 0.02 Unknown
09/21/2021 06:18 AM 48.56 10.76 88.70 54.14 14.0 x 1.57 S 0.89 S 4.70 SW x x Other 11/16/2012 03:01 PM   x x x x x 0.02 Unknown
09/21/2021 06:19 AM 48.56 10.76 88.70 54.14 14.0 x 0.67 W 0.00 S 4.70 SW x x Other 11/16/2012 03:01 PM   x x x x x 0.02 Unknown
09/21/2021 06:20 AM 48.56 10.76 88.70 54.14 14.0 x 0.67 SW 1.57 S 4.03 SE x x Other 11/16/2012 03:01 PM   x x x x x 0.02 Unknown
09/21/2021 06:21 AM 48.38 10.76 88.70 54.14 14.0 x 1.34 SW 2.24 SW 4.03 SE x x Other 11/16/2012 03:01 PM   x x x x x 0.02 Unknown
09/21/2021 06:22 AM 48.38 10.76 88.70 54.14 14.0 x 1.79 SW 2.24 S 4.03 SE x x Other 11/16/2012 03:01 PM   x x x x x 0.02 Unknown
09/21/2021 06:23 AM 48.38 10.58 88.70 54.14 14.0 x 2.01 SW 2.46 S 4.03 SE x x Other 11/16/2012 03:01 PM   x x x x x 0.02 Unknown
09/21/2021 06:24 AM 48.20 10.58 88.70 54.14 14.0 x 2.24 SW 2.68 S 4.03 SE x x Other 11/16/2012 03:01 PM   x x x x x 0.02 Unknown
09/21/2021 06:25 AM 48.02 10.40 88.70 54.14 14.0 x 2.24 SW 2.46 SW 3.80 S x x Other 11/16/2012 03:01 PM   x x x x x 0.02 Unknown
09/21/2021 06:26 AM 48.02 10.22 88.70 54.14 14.0 x 2.46 SW 2.24 SW 3.58 SW x x Other 11/16/2012 03:01 PM   x x x x x 0.02 Unknown
09/21/2021 06:27 AM 47.66 10.58 88.70 54.14 14.0 x 2.91 SW 3.36 S 4.47 S x x Other 11/16/2012 03:01 PM   x x x x x 0.02 Unknown
09/21/2021 06:28 AM 47.66 10.40 88.70 54.14 14.0 x 3.58 SW 4.70 SW 4.70 SW x x Other 11/16/2012 03:01 PM   x x x x x 0.02 Unknown
09/21/2021 06:29 AM 47.30 10.22 88.70 54.14 14.0 x 3.80 SW 3.13 SW 4.70 SW x x Other 11/16/2012 03:01 PM   x x x x x 0.02 Unknown
09/21/2021 06:30 AM 47.12 10.40 88.70 54.14 14.0 x 3.58 SW 3.36 SW 4.70 SW x x Other 11/16/2012 03:01 PM   x x x x x 0.02 Unknown
09/21/2021 06:31 AM 46.94 10.40 88.70 54.14 14.0 x 3.58 SW 4.25 SW 4.70 SW x x Other 11/16/2012 03:01 PM   x x x x x 0.02 Unknown
09/21/2021 06:32 AM 46.76 10.58 88.70 54.14 15.0 x 4.03 SW 3.80 S 7.61 S x x Other 11/16/2012 03:01 PM   x x x x x 0.02 Unknown
09/21/2021 06:33 AM 46.58 10.58 88.70 54.14 15.0 x 4.25 SW 4.03 S 7.61 S x x Other 11/16/2012 03:01 PM   x x x x x 0.02 Unknown
09/21/2021 06:34 AM 46.58 10.40 88.70 54.14 15.0 x 4.03 SW 3.80 SW 7.61 S x x Other 11/16/2012 03:01 PM   x x x x x 0.02 Unknown
09/21/2021 06:35 AM 46.40 10.76 88.70 54.14 15.0 x 4.03 S 4.03 SW 7.61 S x x Other 11/16/2012 03:01 PM   x x x x x 0.02 Unknown
09/21/2021 06:36 AM 46.22 10.76 88.70 54.14 15.0 x 4.03 SW 4.47 SW 7.61 S x x Other 11/16/2012 03:01 PM   x x x x x 0.02 Unknown
09/21/2021 06:37 AM 46.22 11.12 88.70 54.14 15.0 x 4.03 SW 7.16 S 7.61 S x x Other 11/16/2012 03:01 PM   x x x x x 0.02 Unknown
09/21/2021 06:38 AM 46.22 11.12 88.70 54.14 15.0 x 4.70 S 4.47 S 7.61 S x x Other 11/16/2012 03:01 PM   x x x x x 0.02 Unknown
09/21/2021 06:39 AM 46.22 11.30 88.70 54.14 15.0 x 5.14 S 4.47 S 7.61 S x x Other 11/16/2012 03:01 PM   x x x x x 0.02 Unknown
09/21/2021 06:40 AM 46.22 11.30 88.70 54.14 15.0 x 4.70 S 4.70 S 7.61 S x x Other 11/16/2012 03:01 PM   x x x x x 0.02 Unknown
09/21/2021 06:41 AM 46.22 11.66 88.70 54.14 16.0 x 4.25 S 4.92 S 7.16 S x x Other 11/16/2012 03:01 PM   x x x x x 0.02 Unknown
09/21/2021 06:43 AM 46.22 11.48 88.70 57.02 16.0 x 5.82 S 6.93 S 9.40 S x x Other 11/16/2012 03:01 PM   x x x x x 0.02 Unknown
09/21/2021 06:44 AM 46.22 11.48 88.70 57.02 16.0 x 6.26 S 6.71 S 9.40 S x x Other 11/16/2012 03:01 PM   x x x x x 0.02 Unknown
09/21/2021 06:45 AM 46.22 11.48 88.70 57.02 16.0 x 6.49 S 6.93 S 9.40 S x x Other 11/16/2012 03:01 PM   x x x x x 0.02 Unknown
09/21/2021 06:46 AM 46.22 11.30 88.70 57.02 16.0 x 4.70 S 3.80 S 9.40 S x x Other 11/16/2012 03:01 PM   x x x x x 0.02 Unknown
09/21/2021 06:47 AM 46.40 11.48 88.70 57.02 15.0 x 2.91 S 2.01 S 9.40 S x x Other 11/16/2012 03:01 PM   x x x x x 0.02 Unknown
09/21/2021 06:48 AM 46.40 11.48 88.70 57.02 15.0 x 2.46 S 4.47 S 9.40 S x x Other 11/16/2012 03:01 PM   x x x x x 0.02 Unknown
09/21/2021 06:49 AM 46.58 11.66 88.70 57.02 16.0 x 3.36 S 4.92 S 9.40 S x x Other 11/16/2012 03:01 PM   x x x x x 0.02 Unknown
09/21/2021 06:50 AM 46.58 11.66 88.70 57.02 16.0 x 4.70 S 5.14 S 9.40 S x x Other 11/16/2012 03:01 PM   x x x x x 0.02 Unknown
09/21/2021 06:51 AM 46.58 11.66 88.70 57.02 15.0 x 4.70 S 4.03 S 9.40 S x x Other 11/16/2012 03:01 PM   x x x x x 0.02 Unknown
09/21/2021 06:52 AM 46.58 11.66 88.70 57.02 15.0 x 4.03 S 3.80 S 9.40 S x x Other 11/16/2012 03:01 PM   x x x x x 0.02 Unknown
09/21/2021 06:53 AM 46.58 11.66 88.70 57.02 15.0 x 4.25 S 6.71 SW 7.83 S x x Other 11/16/2012 03:01 PM   x x x x x 0.02 Unknown
09/21/2021 06:54 AM 46.58 11.66 88.70 57.02 15.0 x 5.14 S 6.49 S 7.38 S x x Other 11/16/2012 03:01 PM   x x x x x 0.02 Unknown
09/21/2021 06:55 AM 46.58 11.66 88.70 57.02 15.0 x 5.82 S 5.14 S 7.38 S x x Other 11/16/2012 03:01 PM   x x x x x 0.02 Unknown
09/21/2021 06:56 AM 46.58 11.66 88.70 57.02 15.0 x 5.59 S 5.59 S 7.38 S x x Other 11/16/2012 03:01 PM   x x x x x 0.03 Unknown
09/21/2021 06:57 AM 46.58 11.66 88.70 57.02 15.0 x 5.59 S 4.47 S 7.38 S x x Other 11/16/2012 03:01 PM   x x x x x 0.03 Unknown
09/21/2021 06:58 AM 46.58 11.66 88.70 57.02 16.0 x 5.59 S 5.37 S 7.38 S x x Other 11/16/2012 03:01 PM   x x x x x 0.03 Unknown
09/21/2021 06:59 AM 46.58 11.66 88.70 57.02 15.0 x 6.93 S 8.05 S 9.84 S x x Other 11/16/2012 03:01 PM   x x x x x 0.03 Unknown
09/21/2021 07:00 AM 46.58 11.66 88.70 57.02 15.0 x 7.16 S 4.92 SW 9.84 S x x Other 11/16/2012 03:01 PM   x x x x x 0.03 Unknown
09/21/2021 07:01 AM 46.76 11.84 88.70 57.02 15.0 x 4.92 S 1.79 S 9.84 S x x Other 11/16/2012 03:01 PM   x x x x x 0.03 Unknown
09/21/2021 07:02 AM 46.76 12.02 88.70 57.02 15.0 x 2.68 S 3.13 S 9.84 S x x Other 11/16/2012 03:01 PM   x x x x x 0.03 Unknown
09/21/2021 07:03 AM 46.94 12.02 88.70 57.02 15.0 x 2.46 S 2.68 SW 9.84 S x x Other 11/16/2012 03:01 PM   x x x x x 0.03 Unknown
09/21/2021 07:04 AM 46.94 12.02 88.70 57.02 15.0 x 3.80 S 5.14 S 9.84 S x x Other 11/16/2012 03:01 PM   x x x x x 0.03 Unknown
09/21/2021 07:05 AM 46.76 12.02 88.70 57.02 15.0 x 4.92 S 5.59 S 9.84 S x x Other 11/16/2012 03:01 PM   x x x x x 0.03 Unknown
09/21/2021 07:07 AM 46.76 11.84 88.70 57.02 15.0 x 4.25 S 3.36 S 9.84 S x x Other 11/16/2012 03:01 PM   x x x x x 0.03 Unknown
09/21/2021 07:08 AM 46.76 11.84 88.70 57.02 15.0 x 3.13 SW 3.36 SW 8.95 S x x Other 11/16/2012 03:01 PM   x x x x x 0.03 Unknown
09/21/2021 07:09 AM 46.58 11.66 88.70 57.02 15.0 x 4.25 S 5.82 SW 6.49 S x x Other 11/16/2012 03:01 PM   x x x x x 0.03 Unknown
09/21/2021 07:10 AM 46.58 11.66 88.70 57.02 15.0 x 4.92 S 3.58 S 6.26 SW x x Other 11/16/2012 03:01 PM   x x x x x 0.03 Unknown
09/21/2021 07:11 AM 46.58 11.66 88.70 57.02 15.0 x 3.80 S 3.36 S 6.26 SW x x Other 11/16/2012 03:01 PM   x x x x x 0.03 Unknown
09/21/2021 07:12 AM 46.58 11.66 88.70 57.02 15.0 x 3.13 S 2.91 S 6.26 SW x x Other 11/16/2012 03:01 PM   x x x x x 0.03 Unknown
09/21/2021 07:13 AM 46.58 11.66 88.70 57.02 15.0 x 2.91 S 2.91 SW 6.26 x x x Other 11/16/2012 03:01 PM   x x x x x 0.03 Unknown
09/21/2021 07:14 AM 46.58 11.66 88.70 57.02 15.0 x 3.13 S 4.92 S 6.26 SW x x Other 11/16/2012 03:01 PM   x x x x x 0.03 Unknown
09/21/2021 07:15 AM 46.58 11.66 88.70 57.02 15.0 x 4.03 S 3.58 S 6.26 S x x Other 11/16/2012 03:01 PM   x x x x x 0.04 Unknown
09/21/2021 07:16 AM 46.76 11.84 88.70 57.02 15.0 x 4.92 S 5.59 S 7.83 S x x Other 11/16/2012 03:01 PM   x x x x x 0.04 Unknown
09/21/2021 07:17 AM 46.76 12.02 88.70 57.02 15.0 x 5.82 S 5.14 S 8.05 S x x Other 11/16/2012 03:01 PM   x x x x x 0.04 Unknown
09/21/2021 07:18 AM 46.94 12.02 88.70 57.02 15.0 x 5.14 S 2.68 S 8.05 S x x Other 11/16/2012 03:01 PM   x x x x x 0.04 Unknown
09/21/2021 07:19 AM 46.94 12.02 88.70 57.02 15.0 x 3.80 S 3.58 S 8.05 S x x Other 11/16/2012 03:01 PM   x x x x x 0.04 Unknown
09/21/2021 07:20 AM 47.12 12.20 88.70 57.02 15.0 x 4.47 S 6.04 S 8.05 S x x Other 11/16/2012 03:01 PM   x x x x x 0.04 Unknown
09/21/2021 07:21 AM 47.12 12.38 88.70 57.02 15.0 x 5.59 S 4.47 S 8.05 S x x Other 11/16/2012 03:01 PM   x x x x x 0.04 Unknown
09/21/2021 07:22 AM 47.30 12.56 88.70 57.02 15.0 x 4.70 S 3.58 S 8.05 S x x Other 11/16/2012 03:01 PM   x x x x x 0.04 Unknown
09/21/2021 07:23 AM 47.30 12.56 88.70 57.02 15.0 x 3.13 S 3.58 S 8.05 S x x Other 11/16/2012 03:01 PM   x x x x x 0.04 Unknown
09/21/2021 07:24 AM 47.30 12.56 88.70 57.02 15.0 x 2.91 S 3.36 S 8.05 S x x Other 11/16/2012 03:01 PM   x x x x x 0.04 Unknown
09/21/2021 07:25 AM 47.48 12.74 88.70 57.02 15.0 x 3.80 SW 4.70 SW 8.05 S x x Other 11/16/2012 03:01 PM   x x x x x 0.04 Unknown
09/21/2021 07:26 AM 47.30 12.56 88.70 57.02 15.0 x 4.25 SW 3.36 SW 8.05 S x x Other 11/16/2012 03:01 PM   x x x x x 0.04 Unknown
09/21/2021 07:27 AM 47.30 12.56 88.70 57.02 15.0 x 3.80 SW 3.58 SW 7.38 S x x Other 11/16/2012 03:01 PM   x x x x x 0.04 Unknown
09/21/2021 07:28 AM 47.30 12.56 88.70 57.02 15.0 x 3.36 SW 4.25 SW 7.38 S x x Other 11/16/2012 03:01 PM   x x x x x 0.04 Unknown
09/21/2021 07:29 AM 47.30 12.56 88.70 57.02 15.0 x 4.03 SW 4.92 S 7.38 S x x Other 11/16/2012 03:01 PM   x x x x x 0.04 Unknown
09/21/2021 07:30 AM 47.30 12.56 88.70 57.02 15.0 x 4.47 SW 4.25 S 6.26 S x x Other 11/16/2012 03:01 PM   x x x x x 0.04 Unknown
09/21/2021 07:31 AM 47.30 12.56 88.70 57.02 15.0 x 3.58 S 4.47 SW 5.59 S x x Other 11/16/2012 03:01 PM   x x x x x 0.04 Unknown
09/21/2021 07:32 AM 47.30 12.56 88.70 57.02 15.0 x 3.58 S 4.03 SW 5.59 S x x Other 11/16/2012 03:01 PM   x x x x x 0.04 Unknown
09/21/2021 07:33 AM 47.12 12.38 88.70 57.02 15.0 x 4.25 SW 3.58 S 5.82 SW x x Other 11/16/2012 03:01 PM   x x x x x 0.04 Unknown
09/21/2021 07:34 AM 47.12 12.38 88.70 57.02 15.0 x 4.03 SW 4.25 S 5.82 SW x x Other 11/16/2012 03:01 PM   x x x x x 0.04 Unknown
09/21/2021 07:35 AM 47.12 12.38 88.70 57.02 15.0 x 3.80 SW 4.70 SW 5.82 SW x x Other 11/16/2012 03:01 PM   x x x x x 0.04 Unknown
09/21/2021 07:36 AM 47.12 12.38 88.70 57.02 15.0 x 4.03 S 4.70 SW 5.82 SW x x Other 11/16/2012 03:01 PM   x x x x x 0.04 Unknown
09/21/2021 07:37 AM 47.12 12.38 88.70 57.02 15.0 x 3.80 S 2.91 SW 5.82 SW x x Other 11/16/2012 03:01 PM   x x x x x 0.04 Unknown
09/21/2021 07:38 AM 47.30 12.56 88.70 57.02 15.0 x 3.36 SW 2.91 SW 5.82 SW x x Other 11/16/2012 03:01 PM   x x x x x 0.04 Unknown
09/21/2021 07:39 AM 47.30 12.56 88.70 57.02 15.0 x 3.36 SW 3.36 SW 5.82 SW x x Other 11/16/2012 03:01 PM   x x x x x 0.04 Unknown
09/21/2021 07:40 AM 47.30 12.56 88.70 57.02 15.0 x 3.58 SW 5.82 S 5.82 SW x x Other 11/16/2012 03:01 PM   x x x x x 0.04 Unknown
09/21/2021 07:41 AM 47.30 12.56 88.70 57.02 15.0 x 3.80 SW 4.47 S 5.82 S x x Other 11/16/2012 03:01 PM   x x x x x 0.04 Unknown
09/21/2021 07:42 AM 47.30 12.56 88.70 57.02 15.0 x 4.25 SW 4.47 S 6.26 S x x Other 11/16/2012 03:01 PM   x x x x x 0.04 Unknown
09/21/2021 07:43 AM 47.48 12.74 88.70 57.02 15.0 x 4.25 SW 4.70 S 6.26 S x x Other 11/16/2012 03:01 PM   x x x x x 0.04 Unknown
09/21/2021 07:44 AM 47.66 12.92 88.70 57.02 15.0 x 3.58 SW 3.58 S 6.26 S x x Other 11/16/2012 03:01 PM   x x x x x 0.04 Unknown
09/21/2021 07:45 AM 47.66 12.92 88.70 57.02 15.0 x 3.58 SW 4.47 SW 6.26 S x x Other 11/16/2012 03:01 PM   x x x x x 0.04 Unknown
09/21/2021 07:46 AM 47.66 12.56 88.70 57.02 15.0 x 4.03 SW 3.58 SW 6.26 S x x Other 11/16/2012 03:01 PM   x x x x x 0.04 Unknown
09/21/2021 07:47 AM 47.84 12.56 88.70 57.02 15.0 x 4.03 SW 3.58 SW 6.26 S x x Other 11/16/2012 03:01 PM   x x x x x 0.04 Unknown
09/21/2021 07:48 AM 48.02 12.74 88.70 57.02 15.0 x 4.03 SW 4.92 SW 6.26 S x x Other 11/16/2012 03:01 PM   x x x x x 0.04 Unknown
09/21/2021 07:49 AM 48.02 12.74 88.70 57.02 15.0 x 4.25 SW 4.70 SW 6.26 S x x Other 11/16/2012 03:01 PM   x x x x x 0.04 Unknown
09/21/2021 07:50 AM 48.02 12.74 88.70 57.02 15.0 x 4.03 SW 4.03 SW 6.26 S x x Other 11/16/2012 03:01 PM   x x x x x 0.04 Unknown
09/21/2021 07:51 AM 48.02 12.74 88.70 57.02 15.0 x 3.80 SW 2.68 SW 5.82 SW x x Other 11/16/2012 03:01 PM   x x x x x 0.04 Unknown
09/21/2021 07:52 AM 48.02 12.74 88.70 57.02 15.0 x 3.36 SW 3.36 SW 5.82 SW x x Other 11/16/2012 03:01 PM   x x x x x 0.04 Unknown
09/21/2021 07:53 AM 48.20 12.56 88.70 57.02 15.0 x 3.13 SW 3.13 S 5.82 SW x x Other 11/16/2012 03:01 PM   x x x x x 0.04 Unknown
09/21/2021 07:54 AM 48.20 12.38 88.70 57.02 15.0 x 3.13 S 2.68 S 5.82 SW x x Other 11/16/2012 03:01 PM   x x x x x 0.04 Unknown
09/21/2021 07:55 AM 48.38 12.56 88.70 57.02 15.0 x 2.68 S 3.13 S 5.14 SW x x Other 11/16/2012 03:01 PM   x x x x x 0.04 Unknown
09/21/2021 07:56 AM 48.56 12.74 88.70 57.02 15.0 x 2.91 S 4.70 S 5.14 SW x x Other 11/16/2012 03:01 PM   x x x x x 0.04 Unknown
09/21/2021 07:57 AM 48.74 12.38 88.70 57.02 14.0 x 4.25 S 3.80 S 8.05 S x x Other 11/16/2012 03:01 PM   x x x x x 0.04 Unknown
09/21/2021 07:58 AM 48.74 12.56 88.70 57.02 14.0 x 4.47 S 4.92 S 8.05 S x x Other 11/16/2012 03:01 PM   x x x x x 0.04 Unknown
09/21/2021 07:59 AM 48.92 12.20 88.70 57.02 14.0 x 4.03 S 3.80 S 8.05 S x x Other 11/16/2012 03:01 PM   x x x x x 0.04 Unknown
09/21/2021 08:00 AM 49.10 12.38 88.70 57.02 14.0 x 4.03 S 3.36 S 8.05 S x x Other 11/16/2012 03:01 PM   x x x x x 0.04 Unknown
09/21/2021 08:01 AM 49.28 12.38 88.70 57.02 14.0 x 3.80 S 3.36 SW 8.05 S x x Other 11/16/2012 03:01 PM   x x x x x 0.04 Unknown
09/21/2021 08:02 AM 49.46 12.02 88.70 57.02 14.0 x 3.36 SW 2.91 SW 8.05 S x x Other 11/16/2012 03:01 PM   x x x x x 0.04 Unknown
09/21/2021 08:03 AM 49.64 12.02 88.70 57.02 14.0 x 3.36 S 3.36 S 8.05 S x x Other 11/16/2012 03:01 PM   x x x x x 0.04 Unknown
09/21/2021 08:04 AM 49.64 12.20 88.70 57.02 14.0 x 3.80 S 3.58 S 8.05 S x x Other 11/16/2012 03:01 PM   x x x x x 0.04 Unknown
09/21/2021 08:05 AM 50.00 12.02 88.70 57.02 13.0 x 3.58 S 2.91 S 8.05 S x x Other 11/16/2012 03:01 PM   x x x x x 0.04 Unknown
09/21/2021 08:06 AM 50.00 12.02 88.70 57.02 13.0 x 3.13 S 4.03 S 8.05 S x x Other 11/16/2012 03:01 PM   x x x x x 0.04 Unknown
09/21/2021 08:07 AM 50.18 12.02 88.70 57.02 13.0 x 3.58 S 5.82 S 6.49 S x x Other 11/16/2012 03:01 PM   x x x x x 0.04 Unknown
09/21/2021 08:08 AM 50.36 11.84 88.70 57.02 13.0 x 4.03 S 2.24 S 6.49 S x x Other 11/16/2012 03:01 PM   x x x x x 0.04 Unknown
09/21/2021 08:09 AM 50.54 11.84 88.70 57.02 13.0 x 3.36 S 3.13 S 5.82 S x x Other 11/16/2012 03:01 PM   x x x x x 0.04 Unknown
09/21/2021 08:10 AM 50.72 12.02 88.70 57.02 13.0 x 2.91 S 2.46 S 5.82 S x x Other 11/16/2012 03:01 PM   x x x x x 0.04 Unknown
09/21/2021 08:11 AM 50.90 11.66 88.70 57.02 13.0 x 2.91 SW 3.13 S 5.82 S x x Other 11/16/2012 03:01 PM   x x x x x 0.04 Unknown
09/21/2021 08:12 AM 51.08 11.84 88.70 57.02 13.0 x 2.68 SW 2.68 SW 5.82 S x x Other 11/16/2012 03:01 PM   x x x x x 0.04 Unknown
09/21/2021 08:13 AM 51.08 12.02 88.70 57.02 13.0 x 2.46 SW 3.36 S 5.82 S x x Other 11/16/2012 03:01 PM   x x x x x 0.04 Unknown
09/21/2021 08:14 AM 51.26 12.02 88.70 57.02 13.0 x 2.68 SW 2.91 SW 5.82 S x x Other 11/16/2012 03:01 PM   x x x x x 0.04 Unknown
09/21/2021 08:15 AM 51.44 11.48 88.70 57.02 12.0 x 2.68 SW 3.13 S 5.82 S x x Other 11/16/2012 03:01 PM   x x x x x 0.04 Unknown
09/21/2021 08:16 AM 51.44 11.66 88.70 57.02 12.0 x 2.68 SW 2.46 SW 5.82 S x x Other 11/16/2012 03:01 PM   x x x x x 0.04 Unknown
09/21/2021 08:17 AM 51.62 11.66 88.70 57.02 12.0 x 3.13 SW 2.68 SW 6.04 S x x Other 11/16/2012 03:01 PM   x x x x x 0.04 Unknown
09/21/2021 08:18 AM 51.80 11.84 88.70 57.02 12.0 x 2.91 S 2.46 SW 6.04 S x x Other 11/16/2012 03:01 PM   x x x x x 0.04 Unknown
09/21/2021 08:19 AM 51.98 11.30 88.70 57.02 12.0 x 2.68 SW 1.79 SW 6.04 S x x Other 11/16/2012 03:01 PM   x x x x x 0.04 Unknown
09/21/2021 08:20 AM 51.98 11.48 88.70 57.02 12.0 x 2.24 SW 1.34 SW 6.04 S x x Other 11/16/2012 03:01 PM   x x x x x 0.04 Unknown
09/21/2021 08:21 AM 52.16 11.66 88.70 57.02 12.0 x 1.57 SW 1.12 S 6.04 S x x Other 11/16/2012 03:01 PM   x x x x x 0.04 Unknown
09/21/2021 08:22 AM 52.34 11.12 88.70 57.02 11.0 x 1.57 S 1.57 S 6.04 S x x Other 11/16/2012 03:01 PM   x x x x x 0.04 Unknown
09/21/2021 08:23 AM 52.52 11.30 88.70 57.02 11.0 x 1.34 S 1.34 SW 6.04 S x x Other 11/16/2012 03:01 PM   x x x x x 0.04 Unknown
09/21/2021 08:24 AM 52.70 11.30 88.70 57.02 11.0 x 0.89 SW 0.89 W 6.04 S x x Other 11/16/2012 03:01 PM   x x x x x 0.04 Unknown
09/21/2021 08:25 AM 52.88 10.94 88.70 57.02 11.0 x 1.34 SW 1.34 S 6.04 S x x Other 11/16/2012 03:01 PM   x x x x x 0.04 Unknown
09/21/2021 08:26 AM 53.06 11.12 88.70 57.02 11.0 x 1.12 S 1.57 S 4.25 SW x x Other 11/16/2012 03:01 PM   x x x x x 0.04 Unknown
09/21/2021 08:27 AM 53.24 10.40 88.70 57.02 11.0 x 1.12 S 0.67 S 3.58 SW x x Other 11/16/2012 03:01 PM   x x x x x 0.04 Unknown
09/21/2021 08:28 AM 53.42 10.76 88.70 57.02 11.0 x 1.34 S 0.67 SW 3.36 S x x Other 11/16/2012 03:01 PM   x x x x x 0.04 Unknown
09/21/2021 08:29 AM 53.60 10.04 88.70 57.02 10.0 x 0.89 S 1.57 S 3.36 S x x Other 11/16/2012 03:01 PM   x x x x x 0.04 Unknown
09/21/2021 08:30 AM 53.78 10.40 88.70 57.02 10.0 x 0.89 S 1.79 SW 3.36 S x x Other 11/16/2012 03:01 PM   x x x x x 0.04 Unknown
09/21/2021 08:31 AM 53.96 10.40 88.70 57.02 10.0 x 1.57 SW 1.34 SW 3.13 SW x x Other 11/16/2012 03:01 PM   x x x x x 0.04 Unknown
09/21/2021 08:32 AM 54.14 9.86 88.70 57.02 10.0 x 1.57 SW 0.89 E 3.13 SW x x Other 11/16/2012 03:01 PM   x x x x x 0.04 Unknown
09/21/2021 08:33 AM 54.50 9.14 88.70 57.02 10.0 x 1.12 SW 1.34 S 3.13 SW x x Other 11/16/2012 03:01 PM   x x x x x 0.04 Unknown
09/21/2021 08:34 AM 54.68 9.14 88.70 57.02 10.0 x 1.34 S 2.01 S 3.13 SW x x Other 11/16/2012 03:01 PM   x x x x x 0.04 Unknown
09/21/2021 08:35 AM 54.68 9.32 88.70 57.02 10.0 x 1.79 S 1.79 SW 3.13 SW x x Other 11/16/2012 03:01 PM   x x x x x 0.04 Unknown
09/21/2021 08:36 AM 54.86 9.50 88.70 57.02 10.0 x 1.79 S 1.34 SW 4.25 S x x Other 11/16/2012 03:01 PM   x x x x x 0.04 Unknown
09/21/2021 08:37 AM 55.04 9.50 88.70 57.02 10.0 x 1.57 SW 1.57 S 4.25 S x x Other 11/16/2012 03:01 PM   x x x x x 0.04 Unknown
09/21/2021 08:38 AM 55.22 9.68 88.70 57.02 10.0 x 1.34 SW 0.89 S 4.25 S x x Other 11/16/2012 03:01 PM   x x x x x 0.04 Unknown
09/21/2021 08:39 AM 55.22 9.86 88.70 57.02 10.0 x 1.34 SW 2.01 SW 4.25 S x x Other 11/16/2012 03:01 PM   x x x x x 0.04 Unknown
09/21/2021 08:40 AM 55.40 9.86 88.70 57.02 10.0 x 1.79 S 1.57 S 4.25 S x x Other 11/16/2012 03:01 PM   x x x x x 0.04 Unknown
09/21/2021 08:41 AM 55.40 10.04 88.70 57.02 10.0 x 2.24 S 2.01 SW 4.25 S x x Other 11/16/2012 03:01 PM   x x x x x 0.04 Unknown
09/21/2021 08:42 AM 55.58 10.22 88.70 57.02 10.0 x 2.01 SW 2.01 SW 4.25 S x x Other 11/16/2012 03:01 PM   x x x x x 0.04 Unknown
09/21/2021 08:43 AM 55.58 10.22 88.70 57.02 10.0 x 2.24 SW 2.24 S 4.25 S x x Other 11/16/2012 03:01 PM   x x x x x 0.04 Unknown
09/21/2021 08:44 AM 55.76 10.40 88.70 57.02 10.0 x 2.24 SW 2.91 SW 4.25 S x x Other 11/16/2012 03:01 PM   x x x x x 0.04 Unknown
09/21/2021 08:45 AM 55.76 10.40 88.70 57.02 10.0 x 2.24 S 1.12 S 4.03 SE x x Other 11/16/2012 03:01 PM   x x x x x 0.04 Unknown
09/21/2021 08:46 AM 55.76 10.58 88.70 57.02 10.0 x 2.24 S 2.01 SW 4.03 SE x x Other 11/16/2012 03:01 PM   x x x x x 0.04 Unknown
09/21/2021 08:47 AM 55.94 10.58 88.70 57.02 10.0 x 2.24 S 1.79 S 4.47 S x x Other 11/16/2012 03:01 PM   x x x x x 0.04 Unknown
09/21/2021 08:48 AM 55.94 10.76 88.70 57.02 10.0 x 2.68 S 4.47 S 4.70 S x x Other 11/16/2012 03:01 PM   x x x x x 0.04 Unknown
09/21/2021 08:49 AM 56.12 10.94 88.70 57.02 10.0 x 3.36 S 3.58 S 7.61 S x x Other 11/16/2012 03:01 PM   x x x x x 0.04 Unknown
09/21/2021 08:50 AM 56.30 10.94 88.70 57.02 10.0 x 3.58 S 2.91 S 7.61 S x x Other 11/16/2012 03:01 PM   x x x x x 0.04 Unknown
09/21/2021 08:51 AM 56.30 11.12 88.70 57.02 10.0 x 3.36 S 2.68 S 7.61 S x x Other 11/16/2012 03:01 PM   x x x x x 0.04 Unknown
09/21/2021 08:52 AM 56.48 11.30 88.70 57.02 10.0 x 2.91 S 2.01 S 7.61 S x x Other 11/16/2012 03:01 PM   x x x x x 0.04 Unknown
09/21/2021 08:53 AM 56.48 11.30 88.70 57.02 10.0 x 2.01 SW 1.57 SW 7.61 S x x Other 11/16/2012 03:01 PM   x x x x x 0.04 Unknown
09/21/2021 08:54 AM 56.66 11.48 88.70 57.02 10.0 x 2.01 SW 2.91 S 7.61 S x x Other 11/16/2012 03:01 PM   x x x x x 0.04 Unknown
09/21/2021 08:55 AM 56.84 11.66 88.70 57.02 10.0 x 2.01 S 2.24 SW 7.61 S x x Other 11/16/2012 03:01 PM   x x x x x 0.04 Unknown
09/21/2021 08:56 AM 56.84 11.84 88.70 57.02 10.0 x 2.24 S 4.25 S 7.61 S x x Other 11/16/2012 03:01 PM   x x x x x 0.04 Unknown
09/21/2021 08:57 AM 57.02 12.02 88.70 57.02 10.0 x 3.13 S 2.46 S 7.61 S x x Other 11/16/2012 03:01 PM   x x x x x 0.04 Unknown
09/21/2021 08:58 AM 57.20 12.20 88.70 57.02 10.0 x 3.58 S 4.92 S 5.37 S x x Other 11/16/2012 03:01 PM   x x x x x 0.04 Unknown
09/21/2021 08:59 AM 57.20 12.38 88.70 57.02 10.0 x 4.03 S 4.70 S 6.71 S x x Other 11/16/2012 03:01 PM   x x x x x 0.04 Unknown
09/21/2021 09:00 AM 57.20 12.38 88.70 57.02 10.0 x 4.03 S 4.25 S 6.71 S x x Other 11/16/2012 03:01 PM   x x x x x 0.04 Unknown
09/21/2021 09:01 AM 57.38 12.38 88.70 57.02 10.0 x 3.36 SE 2.68 SE 6.71 S x x Other 11/16/2012 03:01 PM   x x x x x 0.04 Unknown
09/21/2021 09:02 AM 57.38 12.38 88.70 57.02 10.0 x 2.91 SE 5.37 S 6.71 S x x Other 11/16/2012 03:01 PM   x x x x x 0.04 Unknown
09/21/2021 09:03 AM 57.38 12.56 88.70 57.02 10.0 x 3.13 S 3.36 S 6.71 S x x Other 11/16/2012 03:01 PM   x x x x x 0.04 Unknown
09/21/2021 09:04 AM 57.56 12.74 88.70 57.02 10.0 x 2.68 S 2.46 S 6.71 S x x Other 11/16/2012 03:01 PM   x x x x x 0.04 Unknown
09/21/2021 09:05 AM 57.74 12.92 88.70 57.02 10.0 x 1.79 S 1.34 SW 6.71 S x x Other 11/16/2012 03:01 PM   x x x x x 0.04 Unknown
09/21/2021 09:06 AM 57.92 13.10 88.70 57.02 10.0 x 1.57 S 1.79 S 6.71 S x x Other 11/16/2012 03:01 PM   x x x x x 0.04 Unknown
09/21/2021 09:07 AM 58.10 13.28 88.70 57.02 10.0 x 1.79 S 2.24 S 6.71 S x x Other 11/16/2012 03:01 PM   x x x x x 0.04 Unknown
09/21/2021 09:08 AM 58.10 13.28 88.70 57.02 10.0 x 2.24 S 1.79 S 6.04 S x x Other 11/16/2012 03:01 PM   x x x x x 0.04 Unknown
09/21/2021 09:09 AM 58.28 13.46 88.70 57.02 10.0 x 2.46 S 2.01 SW 6.04 S x x Other 11/16/2012 03:01 PM   x x x x x 0.04 Unknown
09/21/2021 09:10 AM 58.46 13.64 88.70 57.02 10.0 x 2.24 S 1.12 W 6.04 S x x Other 11/16/2012 03:01 PM   x x x x x 0.04 Unknown
09/21/2021 09:11 AM 58.64 14.00 88.70 57.02 10.0 x 1.57 SW 0.89 SW 6.04 S x x Other 11/16/2012 03:01 PM   x x x x x 0.04 Unknown
09/21/2021 09:12 AM 58.64 14.00 88.70 57.02 10.0 x 1.79 S 3.13 S 4.92 S x x Other 11/16/2012 03:01 PM   x x x x x 0.04 Unknown
09/21/2021 09:13 AM 58.82 14.18 88.70 57.02 10.0 x 1.79 SE 2.01 SW 4.92 S x x Other 11/16/2012 03:01 PM   x x x x x 0.04 Unknown
09/21/2021 09:14 AM 58.82 14.36 88.70 57.02 10.0 x 1.79 SE 1.57 SE 4.92 S x x Other 11/16/2012 03:01 PM   x x x x x 0.04 Unknown
09/21/2021 09:15 AM 59.00 14.54 88.70 57.02 10.0 x 1.79 SW 1.57 W 4.92 S x x Other 11/16/2012 03:01 PM   x x x x x 0.04 Unknown
09/21/2021 09:16 AM 59.18 14.72 88.70 57.02 10.0 x 0.89 SW 0.00 W 4.92 S x x Other 11/16/2012 03:01 PM   x x x x x 0.04 Unknown
09/21/2021 09:17 AM 59.36 15.08 88.70 57.02 10.0 x 0.89 W 3.36 SW 4.92 S x x Other 11/16/2012 03:01 PM   x x x x x 0.04 Unknown
09/21/2021 09:18 AM 59.54 15.26 88.70 57.02 10.0 x 1.79 SW 1.12 W 4.92 S x x Other 11/16/2012 03:01 PM   x x x x x 0.04 Unknown
09/21/2021 09:19 AM 59.54 15.26 88.70 57.02 10.0 x 2.01 W 1.79 W 4.92 S x x Other 11/16/2012 03:01 PM   x x x x x 0.04 Unknown
09/21/2021 09:20 AM 59.54 15.26 88.70 57.02 10.0 x 1.57 SW 0.89 W 4.92 S x x Other 11/16/2012 03:01 PM   x x x x x 0.04 Unknown
09/21/2021 09:21 AM 59.72 15.44 88.70 57.02 10.0 x 1.57 SW 0.89 W 4.92 S x x Other 11/16/2012 03:01 PM   x x x x x 0.04 Unknown
09/21/2021 09:22 AM 59.90 15.62 88.70 57.02 10.0 x 1.34 W 2.24 NW 3.58 SW x x Other 11/16/2012 03:01 PM   x x x x x 0.04 Unknown
09/21/2021 09:23 AM 59.90 15.80 88.70 57.02 10.0 x 1.57 W 2.46 SW 3.58 SW x x Other 11/16/2012 03:01 PM   x x x x x 0.04 Unknown
09/21/2021 09:24 AM 60.08 15.80 88.70 57.02 10.0 x 1.79 W 1.34 W 3.58 SW x x Other 11/16/2012 03:01 PM   x x x x x 0.04 Unknown
09/21/2021 09:25 AM 60.08 15.80 88.70 57.02 10.0 x 1.34 SW 1.79 W 3.58 SW x x Other 11/16/2012 03:01 PM   x x x x x 0.04 Unknown
09/21/2021 09:26 AM 60.08 15.98 88.70 57.02 10.0 x 1.79 W 2.01 W 3.58 S x x Other 11/16/2012 03:01 PM   x x x x x 0.04 Unknown
09/21/2021 09:27 AM 60.26 16.16 88.70 57.02 10.0 x 1.79 W 0.89 W 3.58 S x x Other 11/16/2012 03:01 PM   x x x x x 0.04 Unknown
09/21/2021 09:28 AM 60.26 16.16 88.70 57.02 10.0 x 1.57 SW 1.34 W 3.58 S x x Other 11/16/2012 03:01 PM   x x x x x 0.04 Unknown
09/21/2021 09:29 AM 60.44 16.34 88.70 57.02 10.0 x 1.12 NW 0.89 W 3.58 S x x Other 11/16/2012 03:01 PM   x x x x x 0.04 Unknown
09/21/2021 09:30 AM 60.44 16.52 88.70 57.02 10.0 x 0.67 W 0.22 W 3.58 S x x Other 11/16/2012 03:01 PM   x x x x x 0.04 Unknown
09/21/2021 09:31 AM 60.62 16.52 88.70 57.02 10.0 x 0.45 S 0.00 SW 3.58 S x x Other 11/16/2012 03:01 PM   x x x x x 0.04 Unknown
09/21/2021 09:32 AM 60.80 16.70 88.70 57.02 10.0 x 0.22 SW 1.57 SE 3.58 S x x Other 11/16/2012 03:01 PM   x x x x x 0.04 Unknown
09/21/2021 09:33 AM 60.98 16.88 88.70 57.02 10.0 x 0.67 SW 0.22 SE 3.58 S x x Other 11/16/2012 03:01 PM   x x x x x 0.04 Unknown
09/21/2021 09:34 AM 60.98 17.06 88.70 57.02 10.0 x 1.34 S 1.79 SW 3.80 W x x Other 11/16/2012 03:01 PM   x x x x x 0.04 Unknown
09/21/2021 09:35 AM 61.16 17.42 88.70 57.02 10.0 x 2.01 S 3.13 W 3.80 S x x Other 11/16/2012 03:01 PM   x x x x x 0.04 Unknown
09/21/2021 09:36 AM 61.16 17.24 88.70 57.02 10.0 x 2.24 S 3.13 W 5.82 SW x x Other 11/16/2012 03:01 PM   x x x x x 0.04 Unknown
09/21/2021 09:38 AM 61.16 17.42 88.70 57.02 10.0 x 1.57 W 0.00 SW 5.82 SW x x Other 11/16/2012 03:01 PM   x x x x x 0.04 Unknown
09/21/2021 09:39 AM 61.16 17.42 88.70 57.02 10.0 x 1.57 SW 2.91 W 5.82 SW x x Other 11/16/2012 03:01 PM   x x x x x 0.04 Unknown
09/21/2021 09:40 AM 61.34 17.42 88.70 57.02 10.0 x 2.01 W 2.46 NW 5.82 SW x x Other 11/16/2012 03:01 PM   x x x x x 0.04 Unknown
09/21/2021 09:41 AM 61.34 17.42 88.70 57.02 10.0 x 2.24 W 2.01 SW 5.82 SW x x Other 11/16/2012 03:01 PM   x x x x x 0.04 Unknown
09/21/2021 09:42 AM 61.34 17.78 88.70 57.02 10.0 x 1.57 W 0.67 NW 5.82 SW x x Other 11/16/2012 03:01 PM   x x x x x 0.04 Unknown
09/21/2021 09:43 AM 61.52 17.78 88.70 57.02 10.0 x 0.89 W 0.00 SE 5.82 SW x x Other 11/16/2012 03:01 PM   x x x x x 0.04 Unknown
09/21/2021 09:44 AM 61.70 17.96 88.70 57.02 10.0 x 0.45 SE 1.79 SE 5.82 SW x x Other 11/16/2012 03:01 PM   x x x x x 0.04 Unknown
09/21/2021 09:45 AM 61.70 18.14 88.70 57.02 10.0 x 0.67 SE 0.00 SE 4.70 NW x x Other 11/16/2012 03:01 PM   x x x x x 0.04 Unknown
09/21/2021 09:46 AM 61.70 18.32 88.70 57.02 10.0 x 0.45 SE 0.67 W 4.70 NW x x Other 11/16/2012 03:01 PM   x x x x x 0.04 Unknown
09/21/2021 09:47 AM 61.88 18.50 88.70 57.02 10.0 x 0.89 S 1.57 S 4.70 NW x x Other 11/16/2012 03:01 PM   x x x x x 0.04 Unknown
09/21/2021 09:48 AM 62.06 18.50 88.70 57.02 10.0 x 1.34 S 0.22 S 4.70 NW x x Other 11/16/2012 03:01 PM   x x x x x 0.04 Unknown
09/21/2021 09:49 AM 62.24 18.68 88.70 57.02 10.0 x 1.34 SW 1.57 S 2.91 S x x Other 11/16/2012 03:01 PM   x x x x x 0.04 Unknown
09/21/2021 09:50 AM 62.24 18.68 88.70 57.02 10.0 x 1.34 SW 1.57 W 2.91 S x x Other 11/16/2012 03:01 PM   x x x x x 0.04 Unknown
09/21/2021 09:51 AM 62.42 19.04 88.70 57.02 10.0 x 0.89 W 0.67 SW 2.91 S x x Other 11/16/2012 03:01 PM   x x x x x 0.04 Unknown
09/21/2021 09:52 AM 62.42 19.04 88.70 57.02 10.0 x 0.89 W 0.89 NE 4.25 S x x Other 11/16/2012 03:01 PM   x x x x x 0.04 Unknown
09/21/2021 09:53 AM 62.60 19.40 88.70 57.02 10.0 x 0.89 S 0.00 S 4.25 S x x Other 11/16/2012 03:01 PM   x x x x x 0.04 Unknown
09/21/2021 09:54 AM 62.60 19.40 88.70 57.02 10.0 x 1.34 S 0.00 SE 4.47 S x x Other 11/16/2012 03:01 PM   x x x x x 0.04 Unknown
09/21/2021 09:55 AM 62.78 19.40 88.70 57.02 10.0 x 2.01 S 1.79 S 4.47 S x x Other 11/16/2012 03:01 PM   x x x x x 0.04 Unknown
09/21/2021 09:56 AM 62.78 19.76 88.70 57.02 10.0 x 1.57 SE 0.67 W 4.47 S x x Other 11/16/2012 03:01 PM   x x x x x 0.04 Unknown
09/21/2021 09:57 AM 62.96 19.76 88.70 57.02 10.0 x 1.12 W 0.45 W 4.47 S x x Other 11/16/2012 03:01 PM   x x x x x 0.04 Unknown
09/21/2021 09:58 AM 63.14 20.12 88.70 57.02 10.0 x 0.45 NW 0.00 NW 4.47 S x x Other 11/16/2012 03:01 PM   x x x x x 0.04 Unknown
09/21/2021 09:59 AM 63.32 20.48 88.70 57.02 10.0 x 0.22 NW 0.89 NE 4.47 S x x Other 11/16/2012 03:01 PM   x x x x x 0.04 Unknown
09/21/2021 10:00 AM 63.50 20.30 88.70 57.02 10.0 x 0.67 NE 1.12 NE 4.47 S x x Other 11/16/2012 03:01 PM   x x x x x 0.04 Unknown
09/21/2021 10:01 AM 63.50 20.48 88.70 57.02 10.0 x 1.12 NE 1.12 S 4.47 S x x Other 11/16/2012 03:01 PM   x x x x x 0.04 Unknown
09/21/2021 10:02 AM 63.68 20.66 88.70 57.02 10.0 x 0.89 SW 1.12 NE 4.47 S x x Other 11/16/2012 03:01 PM   x x x x x 0.04 Unknown
09/21/2021 10:03 AM 63.68 20.84 88.70 57.02 10.0 x 0.89 E 0.45 SE 3.58 S x x Other 11/16/2012 03:01 PM   x x x x x 0.04 Unknown
09/21/2021 10:04 AM 64.04 21.20 88.70 57.02 10.0 x 0.67 N 0.00 E 3.13 S x x Other 11/16/2012 03:01 PM   x x x x x 0.04 Unknown
09/21/2021 10:05 AM 64.04 21.38 88.70 57.02 10.0 x 0.45 N 0.45 NW 3.13 S x x Other 11/16/2012 03:01 PM   x x x x x 0.04 Unknown
09/21/2021 10:06 AM 64.22 21.56 88.70 57.02 10.0 x 0.89 NE 0.22 S 3.13 S x x Other 11/16/2012 03:01 PM   x x x x x 0.04 Unknown
09/21/2021 10:07 AM 64.40 21.74 88.70 57.02 10.0 x 0.45 N 0.00 N 3.13 S x x Other 11/16/2012 03:01 PM   x x x x x 0.04 Unknown
09/21/2021 10:08 AM 64.58 22.10 88.70 57.02 10.0 x 0.00 N 0.45 N 3.13 S x x Other 11/16/2012 03:01 PM   x x x x x 0.04 Unknown
09/21/2021 10:09 AM 64.58 21.92 88.70 57.02 10.0 x 0.45 NE 2.68 E 3.13 S x x Other 11/16/2012 03:01 PM   x x x x x 0.04 Unknown
09/21/2021 10:10 AM 64.58 22.10 88.70 57.02 10.0 x 1.12 NE 1.34 NE 3.13 S x x Other 11/16/2012 03:01 PM   x x x x x 0.04 Unknown
09/21/2021 10:11 AM 64.76 22.28 88.70 57.02 10.0 x 1.12 NE 1.12 NE 3.13 S x x Other 11/16/2012 03:01 PM   x x x x x 0.04 Unknown
09/21/2021 10:12 AM 64.76 22.46 88.70 57.02 10.0 x 1.34 NE 1.79 E 2.68 NE x x Other 11/16/2012 03:01 PM   x x x x x 0.04 Unknown
09/21/2021 10:13 AM 64.94 22.64 88.70 57.02 10.0 x 1.57 E 1.79 S 2.68 NE x x Other 11/16/2012 03:01 PM   x x x x x 0.04 Unknown
09/21/2021 10:14 AM 65.12 22.64 88.70 57.02 10.0 x 1.57 SE 2.91 SE 2.91 SE x x Other 11/16/2012 03:01 PM   x x x x x 0.04 Unknown
09/21/2021 10:15 AM 65.12 22.64 88.70 57.02 10.0 x 1.57 SE 0.45 SE 3.36 S x x Other 11/16/2012 03:01 PM   x x x x x 0.04 Unknown
09/21/2021 10:16 AM 65.12 22.64 88.70 57.02 10.0 x 1.57 SE 0.22 SW 3.36 S x x Other 11/16/2012 03:01 PM   x x x x x 0.04 Unknown
09/21/2021 10:17 AM 65.12 22.64 88.70 57.02 10.0 x 1.34 SE 2.24 x 3.36 S x x Other 11/16/2012 03:01 PM   x x x x x 0.04 Unknown
09/21/2021 10:18 AM 65.12 22.82 88.70 57.02 10.0 x 1.79 SE 1.12 SE 3.36 S x x Other 11/16/2012 03:01 PM   x x x x x 0.04 Unknown
09/21/2021 10:19 AM 65.12 22.64 88.70 57.02 10.0 x 1.79 SE 1.57 E 3.36 S x x Other 11/16/2012 03:01 PM   x x x x x 0.04 Unknown
09/21/2021 10:20 AM 64.94 22.64 88.70 57.02 10.0 x 1.34 E 1.12 E 3.36 S x x Other 11/16/2012 03:01 PM   x x x x x 0.04 Unknown
09/21/2021 10:21 AM 65.12 22.82 88.70 57.02 10.0 x 1.12 E 0.89 E 3.36 S x x Other 11/16/2012 03:01 PM   x x x x x 0.04 Unknown
09/21/2021 10:22 AM 65.12 23.00 88.70 57.02 10.0 x 1.12 E 1.12 SE 3.36 S x x Other 11/16/2012 03:01 PM   x x x x x 0.04 Unknown
09/21/2021 10:23 AM 65.30 23.00 88.70 57.02 10.0 x 0.67 NE 0.00 NW 3.36 S x x Other 11/16/2012 03:01 PM   x x x x x 0.04 Unknown
09/21/2021 10:24 AM 65.30 23.00 88.70 57.02 10.0 x 0.45 NE 0.45 SW 2.91 SE x x Other 11/16/2012 03:01 PM   x x x x x 0.04 Unknown
09/21/2021 10:27 AM 65.48 23.18 88.70 57.02 10.0 x 1.34 E 1.12 E 3.58 S x x Other 11/16/2012 03:01 PM   x x x x x 0.04 Unknown
09/21/2021 10:28 AM 65.48 23.36 88.70 57.02 10.0 x 1.12 E 0.00 E 3.58 S x x Other 11/16/2012 03:01 PM   x x x x x 0.04 Unknown
09/21/2021 10:29 AM 65.66 23.72 88.70 57.02 10.0 x 0.89 E 2.01 S 3.58 S x x Other 11/16/2012 03:01 PM   x x x x x 0.04 Unknown
09/21/2021 10:30 AM 65.84 23.90 88.70 57.02 10.0 x 0.89 S 0.00 S 3.58 S x x Other 11/16/2012 03:01 PM   x x x x x 0.04 Unknown
09/21/2021 10:31 AM 66.02 24.26 88.70 57.02 10.0 x 0.22 S 0.22 S 3.58 S x x Other 11/16/2012 03:01 PM   x x x x x 0.04 Unknown
09/21/2021 10:32 AM 66.20 24.62 88.70 57.02 10.0 x 1.34 S 1.34 NE 5.82 S x x Other 11/16/2012 03:01 PM   x x x x x 0.04 Unknown
09/21/2021 10:33 AM 66.20 24.44 88.70 57.02 10.0 x 2.24 NE 3.13 NE 5.82 S x x Other 11/16/2012 03:01 PM   x x x x x 0.04 Unknown
09/21/2021 10:34 AM 66.02 24.26 88.70 57.02 10.0 x 2.24 NE 1.12 NE 5.82 S x x Other 11/16/2012 03:01 PM   x x x x x 0.04 Unknown
09/21/2021 10:35 AM 66.20 24.26 88.70 57.02 10.0 x 1.57 NE 1.79 SE 5.82 S x x Other 11/16/2012 03:01 PM   x x x x x 0.04 Unknown
09/21/2021 10:36 AM 66.20 24.26 88.70 57.02 10.0 x 1.34 SE 1.12 E 5.82 S x x Other 11/16/2012 03:01 PM   x x x x x 0.04 Unknown
09/21/2021 10:37 AM 66.20 24.44 88.70 57.02 10.0 x 1.57 SE 1.79 E 5.82 S x x Other 11/16/2012 03:01 PM   x x x x x 0.04 Unknown
09/21/2021 10:38 AM 66.20 24.26 88.70 57.02 10